GFSSW_sfc_dewp_090.txt.gz
Dewpoint
55 55 56 56 56 55 56 57 57 57 57 57 57 58 58 59 58 47 39 49 56 63 54 45 34 36 41 43 47 51 45 44 45 46 45 47 46 46 47 46 47 47 47 50 59
54 55 55 55 56 56 57 57 57 57 57 58 58 58 58 58 49 42 48 55 59 58 40 42 29 34 36 38 44 46 44 44 45 46 47 47 46 46 44 45 46 48 52 55 60
55 55 55 55 56 56 56 56 57 57 57 57 57 57 57 55 39 44 55 54 55 52 44 47 44 32 32 38 37 39 40 42 46 47 49 47 46 45 45 46 44 45 52 58 60
55 55 55 55 56 56 57 57 57 57 57 58 58 57 58 48 17 41 52 52 54 43 46 42 37 28 28 28 30 36 36 39 45 47 49 47 46 45 45 46 46 45 52 58 59
55 55 56 57 57 57 57 58 58 58 58 58 58 57 52 35 21 35 49 47 41 39 36 34 29 31 25 22 27 32 31 35 42 44 48 46 46 45 44 47 45 44 53 58 58
55 55 56 56 57 57 57 58 58 58 57 58 57 56 46 24 38 39 42 42 40 40 36 39 29 32 29 29 25 27 35 32 36 44 46 44 44 40 42 43 45 49 52 56 57
55 55 56 56 56 57 57 57 58 58 59 57 57 51 47 30 42 44 45 41 42 41 38 36 36 34 32 27 28 32 26 31 38 32 45 46 44 41 42 41 45 48 51 55 58
55 55 56 56 56 56 57 57 58 58 58 56 56 50 39 45 47 45 44 42 44 44 42 41 40 38 37 31 26 26 31 22 25 38 39 45 40 44 41 40 41 47 50 54 57
55 55 56 56 56 56 57 57 57 58 57 56 51 48 32 46 40 41 43 40 41 42 43 40 38 34 36 30 22 21 15 25 22 38 40 43 39 42 43 42 43 47 49 51 54
55 55 56 56 56 56 57 56 57 56 54 53 50 43 37 35 41 42 42 43 39 37 37 36 34 31 30 26 17 11 13 19 25 29 43 42 42 42 44 43 47 49 50 51 51
55 55 55 56 56 57 53 44 37 37 41 40 40 39 37 40 42 40 40 40 36 33 29 32 28 26 24 24 24 20 15 17 25 30 38 40 40 41 44 43 45 49 50 50 51
55 55 55 56 56 56 49 41 42 42 41 43 43 42 42 43 38 36 40 34 32 29 29 30 29 30 29 26 27 25 21 23 29 30 37 35 40 42 43 43 43 44 46 48 48
56 56 55 55 56 49 48 47 47 46 42 40 41 39 39 42 37 35 37 33 32 30 34 35 33 34 31 29 28 28 26 22 28 38 40 34 33 39 44 44 46 44 44 43 46
56 56 55 55 46 46 47 49 49 47 36 25 33 36 39 42 37 38 37 35 33 33 36 37 36 34 33 30 30 27 27 25 32 38 34 39 23 33 39 42 43 45 45 46 45
55 56 55 54 43 39 45 48 49 46 19 28 31 39 35 36 35 36 38 37 33 36 37 36 36 36 33 30 30 29 29 26 33 37 35 36 29 30 38 40 41 43 45 46 48
54 55 56 48 47 45 48 48 48 32 18 27 30 30 30 33 33 37 34 39 40 37 38 37 40 40 38 39 39 34 35 37 39 40 34 28 31 26 33 35 37 37 39 40 38
54 54 54 50 36 49 48 44 30 26 28 25 26 29 31 28 30 34 32 32 35 33 35 36 36 37 40 37 41 39 33 32 33 33 31 32 32 29 35 31 30 29 33 35 34
54 52 52 50 50 51 45 31 24 26 27 29 30 30 26 31 26 30 30 29 37 37 37 36 32 35 38 37 35 31 32 33 32 25 26 30 28 26 31 30 30 30 32 33 33
52 44 43 45 50 50 34 18 22 29 29 29 28 26 24 27 31 28 26 28 29 36 33 34 35 34 37 39 38 37 35 42 36 23 26 27 27 27 25 28 29 30 31 33 33
45 38 43 48 51 40 29 25 27 32 32 30 26 28 26 25 25 24 24 29 31 30 35 35 35 32 34 37 33 36 39 35 37 26 21 20 21 26 26 26 29 29 31 32 33
39 27 44 47 43 34 20 21 28 32 33 28 28 27 27 27 28 25 24 27 31 28 29 35 33 31 36 32 28 33 33 35 34 30 27 20 18 19 21 23 28 29 30 32 32
36 15 38 40 30 31 24 30 36 31 29 29 30 29 27 28 26 25 24 24 31 29 25 31 26 28 33 33 32 21 25 34 33 28 23 24 24 18 20 21 30 29 31 32 32
25 31 39 41 20 20 27 29 30 29 26 25 25 27 27 25 23 25 26 31 31 29 27 26 25 21 22 27 28 29 31 26 24 29 28 24 24 19 25 24 30 30 30 31 30
29 16 31 37 34 30 28 26 27 29 27 28 26 24 23 21 23 22 22 25 29 30 38 33 23 20 18 19 20 21 28 26 26 25 24 23 25 21 21 27 31 31 30 30 30
31 20 31 14 26 31 30 30 27 26 28 27 24 26 22 22 22 20 21 22 23 29 24 26 20 19 19 19 18 17 15 24 22 24 23 21 19 21 21 21 30 31 30 29 29
23 26 34 31 31 29 30 23 26 23 27 19 23 27 25 23 21 22 22 22 21 23 23 24 20 19 15 19 23 19 19 19 15 17 19 20 20 20 22 25 29 30 30 29 29
40 40 33 30 28 26 20 24 28 30 27 29 29 28 23 23 23 23 23 24 24 24 23 23 22 22 14 19 22 20 21 23 20 18 18 16 21 22 22 25 28 30 30 30 30

GFSSW_sfc_dewp_093.txt.gz
Dewpoint
55 56 56 56 57 57 57 58 58 58 58 58 59 59 59 59 58 44 35 51 55 62 59 38 32 32 38 42 47 49 45 44 44 44 43 45 46 47 47 46 45 42 43 47 55
56 56 56 56 56 57 57 57 57 58 58 58 59 59 58 58 49 37 50 55 60 58 40 37 27 28 31 33 40 43 41 41 42 43 44 45 46 45 46 46 46 43 49 52 56
56 56 56 56 56 57 57 57 58 58 58 59 58 58 58 56 39 37 55 55 56 55 37 40 37 30 26 31 31 34 37 35 36 42 45 45 46 47 46 46 46 44 48 54 55
56 56 56 56 57 57 58 58 58 59 59 59 59 59 58 50 18 33 51 53 55 46 39 35 33 28 25 23 26 28 28 30 33 36 45 46 47 45 46 46 47 47 47 55 55
56 56 56 57 57 58 58 58 59 59 59 58 58 58 53 33 26 37 48 48 39 38 33 33 26 27 26 19 18 20 22 26 27 33 39 44 47 45 45 47 50 48 48 54 55
56 56 56 57 57 57 57 58 58 59 59 59 58 57 47 28 34 35 38 39 38 38 34 33 30 29 26 24 23 20 22 27 25 27 36 37 39 45 46 46 47 47 47 52 55
56 56 57 57 57 57 57 58 58 59 59 59 57 51 45 33 37 40 42 41 41 40 37 36 34 32 27 26 25 23 23 23 24 30 28 36 39 40 43 43 44 47 47 50 54
56 56 56 57 57 57 57 58 58 59 58 56 56 49 36 40 41 42 41 40 43 42 42 40 39 35 32 30 27 23 19 18 21 19 27 29 34 37 40 42 42 46 46 49 53
56 56 56 56 56 57 58 58 58 57 56 55 51 45 31 46 38 40 41 39 39 40 42 38 37 34 30 30 25 20 16 14 13 20 18 31 29 33 33 41 42 43 46 49 54
56 56 56 56 56 57 58 58 57 57 54 51 49 43 35 33 39 40 41 41 39 37 36 36 34 31 29 25 20 17 14 11 12 12 21 24 33 36 31 41 43 44 44 46 50
56 56 56 56 56 56 54 45 39 40 37 37 37 38 35 38 39 39 39 39 37 34 30 31 30 28 27 27 25 22 20 17 15 13 18 27 33 36 35 45 44 45 45 46 46
56 56 56 56 56 56 52 37 39 42 40 41 41 40 40 41 37 36 39 35 32 31 31 32 31 33 31 32 29 24 19 19 18 15 18 24 28 33 34 44 44 46 46 45 45
55 56 56 56 56 49 44 42 47 46 41 37 39 37 37 40 36 34 36 34 32 32 32 32 33 33 32 30 28 25 20 20 18 17 20 28 25 30 32 42 43 44 46 46 45
55 56 56 56 48 40 44 45 47 47 35 28 30 35 36 40 38 36 37 36 32 31 35 35 35 35 33 30 28 24 24 23 22 22 26 28 28 27 30 40 42 44 43 44 47
55 55 56 55 42 34 42 44 48 47 22 26 28 36 32 34 33 36 38 35 33 34 35 33 36 36 35 30 31 27 27 25 25 23 28 36 29 20 26 33 39 43 44 44 45
56 54 55 48 41 42 45 46 48 37 21 25 28 27 26 28 26 33 35 38 38 35 33 34 37 38 37 37 36 34 29 29 31 31 30 37 38 20 24 26 32 39 44 45 48
56 54 52 47 37 46 46 42 32 23 24 24 27 29 27 25 27 27 28 28 32 31 31 34 34 35 37 37 33 35 31 33 33 35 32 36 37 36 38 32 31 34 39 44 45
54 52 51 45 48 49 45 33 20 23 23 28 28 28 26 27 25 26 25 23 27 28 30 33 31 33 34 37 35 34 31 35 29 29 34 35 33 31 34 31 31 31 36 38 37
53 41 40 45 50 49 37 19 16 26 30 29 26 25 23 25 26 24 23 24 23 27 27 31 32 35 34 36 36 33 35 40 34 35 34 29 27 28 28 30 32 32 33 35 35
39 32 39 47 49 42 30 23 19 30 29 26 23 25 25 25 25 25 23 27 25 24 28 31 31 32 35 36 34 35 39 35 37 34 29 24 26 25 25 28 29 31 33 34 34
39 20 44 44 45 33 21 18 24 28 29 25 24 25 25 25 26 24 23 26 26 24 28 28 31 28 34 31 30 33 33 34 36 31 34 23 16 17 21 26 28 30 32 33 33
28 19 38 42 29 24 16 27 34 26 28 28 28 27 27 26 24 24 23 24 29 26 26 26 25 23 26 29 31 28 24 29 35 34 31 33 19 21 23 28 29 31 33 33 34
20 21 38 39 25 19 19 22 27 25 25 25 25 27 25 24 23 23 24 27 28 27 27 27 21 18 23 25 24 19 30 29 29 28 29 30 27 22 24 29 30 31 32 32 33
23 22 28 32 29 22 19 16 24 29 28 27 26 25 24 22 22 23 22 24 27 28 38 35 25 21 17 18 20 19 19 30 29 30 27 29 25 21 22 28 30 31 31 31 31
21 22 28 26 24 22 21 16 16 17 27 27 23 25 25 21 19 19 23 23 23 30 26 25 20 19 18 17 16 17 16 17 17 18 18 22 19 19 21 22 30 30 31 30 30
20 21 28 23 22 18 24 11 17 13 18 10 18 21 24 22 21 22 23 22 22 23 24 25 21 20 19 16 18 18 23 22 19 16 14 15 17 20 23 25 29 29 29 30 30
33 36 29 33 22 21 23 19 15 22 14 23 25 22 15 14 22 22 22 23 22 23 24 24 23 22 19 14 18 20 19 20 21 20 20 18 23 24 23 27 29 30 30 30 30

GFSSW_sfc_dewp_096.txt.gz
Dewpoint
56 57 57 57 57 57 58 58 58 58 59 59 59 59 59 60 59 48 40 52 55 60 59 45 36 34 40 47 49 53 48 45 46 46 45 45 45 56 58 51 50 50 47 52 55
57 57 57 57 57 58 58 58 58 59 59 59 59 59 59 59 54 39 52 57 57 58 44 37 34 34 37 39 44 45 45 44 44 44 44 44 45 50 55 52 48 49 50 53 54
57 57 57 57 58 58 58 59 59 59 60 60 59 59 59 57 48 37 55 53 55 55 37 36 36 35 34 35 35 39 40 39 38 37 38 40 44 50 53 49 48 48 51 54 54
57 57 57 58 58 58 58 59 59 59 60 59 59 59 60 54 20 39 51 52 55 50 38 31 32 36 33 29 26 28 29 30 34 34 34 34 44 46 56 57 53 53 51 54 53
57 57 57 57 58 58 58 58 59 59 59 60 59 59 55 43 29 43 49 50 41 36 34 32 31 31 29 26 23 20 22 23 24 27 30 33 38 43 47 50 53 52 54 54 53
56 57 57 57 58 58 58 58 59 59 60 60 60 59 50 32 33 35 37 39 38 38 36 34 30 30 28 25 25 24 24 22 25 28 27 28 35 38 42 47 51 51 51 54 54
56 57 57 57 57 57 58 58 59 59 59 59 59 53 45 32 35 39 41 41 41 40 38 37 36 33 32 29 28 26 23 24 24 24 30 29 27 34 37 38 48 50 49 50 54
56 57 57 57 57 57 58 58 59 59 59 57 57 51 40 38 40 40 39 39 42 42 41 42 40 37 34 32 30 26 24 21 22 23 22 25 26 29 37 37 40 48 48 49 52
57 57 57 56 57 57 58 58 58 58 58 56 52 46 33 46 38 38 40 39 39 39 42 39 38 37 35 30 28 26 21 20 20 19 20 19 22 31 30 34 37 43 46 47 49
57 57 57 57 57 57 58 58 58 57 57 52 48 43 38 34 38 38 40 40 39 39 36 38 37 33 32 29 25 23 22 21 21 20 17 19 19 25 31 29 34 42 46 46 48
56 57 57 57 57 57 54 45 38 45 38 36 34 36 34 38 38 38 38 38 38 36 32 36 31 30 31 33 31 29 26 25 22 21 20 18 18 23 30 36 36 40 43 45 50
55 56 57 57 57 56 52 37 41 43 41 40 39 38 38 40 36 36 38 35 34 32 32 32 32 34 32 33 33 31 28 25 22 21 18 17 16 19 32 37 38 45 46 49 48
55 55 56 57 56 48 44 42 46 46 41 37 38 34 35 38 36 35 36 35 32 31 32 32 33 34 34 33 30 30 27 26 22 21 21 19 17 18 24 33 43 45 45 47 48
57 56 55 55 49 37 44 41 45 47 39 34 33 35 34 40 35 35 36 36 33 31 34 34 35 34 34 32 32 31 31 27 28 27 20 19 17 20 27 29 38 43 46 50 48
57 56 55 54 44 35 41 42 46 47 27 25 30 32 31 30 30 34 39 36 33 33 33 32 34 34 35 33 35 33 37 34 33 26 23 23 26 27 33 28 39 42 44 46 49
57 56 54 49 45 43 43 44 47 40 24 26 27 27 27 27 26 29 30 38 37 32 30 32 37 36 35 35 36 35 35 36 36 33 26 24 33 35 32 30 39 43 44 46 46
56 55 52 47 39 46 47 43 35 30 23 25 26 27 25 26 25 26 27 26 26 24 25 29 33 36 36 37 37 37 37 30 29 30 25 36 34 34 38 40 36 42 48 46 46
55 53 51 42 46 48 46 36 25 22 27 28 26 24 24 26 26 25 25 24 23 24 26 26 29 32 34 34 36 36 37 32 25 30 33 38 35 39 46 42 38 41 44 49 47
52 44 40 45 49 48 40 24 23 27 28 25 22 21 22 24 24 24 24 25 24 22 24 28 31 32 34 34 37 34 37 39 34 35 34 35 37 41 42 34 36 40 42 43 41
43 36 37 45 48 45 33 27 21 27 26 24 20 23 23 23 24 24 23 27 26 24 26 29 28 31 32 36 37 37 41 36 36 30 28 28 17 20 27 30 32 33 34 36 36
44 28 44 44 43 35 26 21 22 25 28 25 22 22 21 23 25 22 22 27 27 27 27 25 26 25 29 32 30 33 30 37 39 38 34 22 19 21 27 29 31 32 33 34 35
33 25 39 41 31 28 21 26 33 21 26 27 27 26 25 26 23 23 22 26 30 28 26 26 25 23 24 29 32 31 28 31 35 32 36 35 22 23 28 30 32 33 40 38 37
27 27 39 37 28 25 22 19 24 25 24 24 24 26 27 24 23 24 25 32 33 29 30 29 23 20 20 27 25 21 20 30 31 37 32 34 34 26 29 30 32 32 33 35 36
29 26 31 34 31 20 23 21 21 31 27 26 25 27 25 24 24 23 21 30 32 30 41 38 28 23 19 19 21 18 20 19 30 34 29 29 23 20 25 31 32 32 32 33 35
30 28 31 29 28 26 23 21 19 15 26 26 25 24 24 23 21 18 22 22 24 34 31 28 24 22 21 21 18 18 19 19 16 16 16 17 20 21 23 26 31 31 31 31 32
31 26 31 26 26 25 27 21 21 16 13 15 15 19 23 21 20 19 21 23 22 25 23 27 24 23 21 22 18 18 22 23 22 20 18 20 22 24 26 29 29 30 31 30 31
33 38 34 34 28 24 25 23 21 20 20 17 23 19 15 15 20 20 19 18 18 19 23 26 27 25 23 24 22 21 22 22 23 17 16 21 25 26 27 30 31 30 30 31 31

GFSSW_sfc_dewp_099.txt.gz
Dewpoint
57 57 58 58 58 58 59 59 60 60 60 60 60 60 60 61 60 52 45 52 54 59 60 47 49 42 40 40 47 51 46 45 45 46 47 48 48 56 57 55 57 58 54 54 56
57 57 58 58 58 59 59 59 60 60 60 60 60 60 60 60 55 45 52 54 56 57 51 37 38 37 33 37 38 43 45 44 46 46 44 41 39 54 53 52 54 55 53 55 55
57 57 58 58 58 59 59 59 59 59 60 60 60 60 60 58 48 46 56 50 54 55 49 43 38 39 33 32 34 35 38 41 40 39 38 37 33 52 54 53 58 57 54 54 54
57 57 58 58 58 59 59 59 59 59 60 60 60 60 61 56 23 46 53 52 56 54 49 36 33 31 32 28 27 25 29 38 40 38 34 32 35 40 53 54 59 59 60 54 54
57 57 58 58 58 58 59 59 59 60 60 60 60 60 55 46 32 51 54 50 47 41 38 36 32 31 28 27 26 25 23 27 27 28 27 27 31 34 50 51 56 58 59 60 56
57 57 58 58 58 58 58 58 59 59 60 60 60 59 53 34 34 39 40 40 43 41 40 39 34 34 29 27 25 25 25 26 26 25 26 29 30 31 37 54 54 55 56 56 57
57 57 57 57 57 58 58 58 58 59 59 60 59 55 47 37 36 38 42 43 43 44 42 42 41 37 36 31 32 30 26 26 25 25 25 26 26 28 35 42 50 51 52 54 58
57 57 57 57 57 57 58 59 59 59 59 59 59 53 43 40 42 41 42 41 43 43 43 43 42 39 37 35 33 30 29 24 24 25 25 25 21 27 28 30 36 49 49 51 57
57 57 57 57 57 58 58 58 59 59 59 59 53 49 39 49 39 40 41 41 41 41 42 40 42 37 37 33 29 28 25 23 24 26 24 23 20 22 28 30 29 41 48 49 51
57 56 57 57 57 58 58 58 58 57 58 54 51 41 40 35 40 40 40 42 41 41 40 39 37 35 33 31 28 30 29 27 26 26 25 22 21 21 28 30 29 29 47 47 48
56 56 56 57 57 57 55 47 39 39 42 37 37 37 36 39 41 39 40 40 41 40 35 37 34 31 32 32 32 32 31 30 30 29 23 21 21 21 23 24 30 34 42 46 47
57 57 56 56 56 56 52 41 43 43 41 44 41 40 40 41 37 37 40 36 35 33 34 34 32 34 35 36 34 32 31 29 29 28 23 20 20 21 18 26 26 32 36 43 48
57 57 56 56 56 49 43 43 45 46 42 42 40 38 38 39 37 37 37 37 35 31 33 32 33 36 35 35 33 32 31 31 30 30 28 23 21 21 20 20 28 39 45 49 52
57 56 56 55 46 41 43 42 45 47 39 36 37 37 39 44 37 39 38 37 35 32 34 34 36 36 36 35 35 33 35 34 32 31 26 22 17 19 20 20 26 39 44 51 53
57 56 55 55 46 41 42 43 43 47 24 30 35 37 34 34 33 35 40 37 34 34 34 28 35 36 37 35 36 34 37 35 35 34 31 29 23 20 25 29 33 37 44 51 52
57 56 55 49 49 44 45 46 45 37 24 32 32 30 28 30 29 31 38 39 38 34 28 26 36 38 36 37 37 40 38 37 36 34 27 27 27 25 34 38 38 40 44 48 50
56 55 52 49 41 46 48 44 30 30 27 27 28 28 26 26 27 27 27 25 23 21 22 28 34 36 37 36 38 39 37 29 25 28 26 35 31 31 40 43 43 43 44 48 49
55 53 50 47 45 48 46 34 22 29 28 30 26 24 26 28 27 26 25 24 24 24 25 25 27 32 33 34 34 36 37 32 23 27 31 35 31 36 43 45 44 45 48 49 51
53 44 44 46 49 47 38 25 25 28 28 27 26 21 24 26 25 25 24 26 24 25 24 26 30 32 30 35 36 34 37 39 33 34 32 33 37 43 44 44 45 46 45 45 46
45 40 37 47 48 44 33 30 26 30 29 28 24 26 22 23 25 24 24 28 28 28 27 26 26 28 32 35 37 37 41 37 36 30 22 23 21 25 39 41 41 40 47 46 46
44 30 42 45 43 35 27 23 28 26 31 29 26 26 23 26 24 23 23 30 30 28 28 25 23 21 27 29 29 32 31 38 39 36 32 25 21 29 31 32 32 32 36 42 39
39 24 40 41 30 33 22 26 32 27 29 29 28 28 27 27 24 23 24 27 29 30 28 28 24 21 22 26 29 25 25 34 34 34 36 33 26 28 31 32 35 35 36 37 38
30 26 39 36 27 24 21 25 27 29 29 28 27 30 28 27 24 25 24 33 31 30 28 26 23 22 20 21 22 19 20 22 35 37 32 27 28 27 31 31 32 33 36 40 37
30 22 32 34 31 19 23 24 23 31 30 28 26 28 27 25 27 24 21 28 30 30 41 36 27 23 21 22 23 20 19 18 28 21 23 29 21 21 29 31 32 32 34 35 34
31 21 30 29 28 25 24 23 21 21 27 26 25 27 25 23 23 21 21 22 26 36 27 24 22 23 24 24 23 18 22 24 19 16 14 17 20 22 25 31 31 31 32 33 33
27 22 28 24 25 26 28 21 21 22 18 16 17 24 18 16 17 16 20 20 21 23 22 24 23 24 23 25 23 19 23 24 22 18 19 23 23 25 30 30 30 30 30 31 31
33 35 32 33 27 26 25 23 25 22 22 22 24 20 16 18 22 22 21 21 19 17 15 20 25 25 22 24 25 20 21 22 17 21 17 19 25 26 28 28 29 31 30 30 31

GFSSW_sfc_dewp_102.txt.gz
Dewpoint
57 58 58 59 59 59 59 60 60 60 60 60 61 61 60 60 60 53 39 43 53 58 59 51 46 46 39 39 44 49 44 44 45 47 48 50 47 56 57 54 56 57 55 55 57
57 58 58 58 59 59 59 60 60 60 60 61 61 61 60 60 55 44 44 55 55 57 48 43 37 37 33 36 35 41 43 44 47 46 46 41 38 53 54 52 54 55 56 56 57
57 58 58 58 59 59 59 59 59 60 60 61 61 60 60 60 42 41 55 53 56 57 50 47 43 39 34 32 31 33 39 42 42 42 42 37 35 43 53 52 54 55 55 59 61
57 58 58 58 59 59 59 59 59 59 60 60 61 61 61 56 23 41 56 54 57 53 44 39 34 31 32 28 29 25 26 27 39 41 40 37 32 44 54 53 57 59 57 60 60
57 58 58 58 58 58 58 58 59 59 60 60 60 60 55 40 30 46 57 52 44 42 40 39 32 32 30 28 26 25 25 26 28 29 29 27 30 30 49 54 58 59 58 58 59
58 58 58 58 58 58 58 58 59 58 59 60 60 59 50 30 33 44 47 39 43 42 40 41 40 37 33 32 29 26 30 29 29 28 27 26 29 33 37 53 56 57 58 59 60
58 58 58 58 58 58 58 58 58 58 59 60 59 55 47 33 35 37 40 42 43 43 42 43 43 37 37 34 34 31 30 29 28 26 25 27 23 26 31 51 51 54 55 59 59
57 57 57 57 57 58 58 58 59 59 59 59 59 52 39 43 40 39 42 41 43 43 44 43 44 40 38 36 34 30 30 26 27 26 25 24 20 24 24 26 44 51 56 58 59
57 56 55 56 56 57 58 58 59 59 59 59 53 49 35 48 38 39 40 40 42 42 43 41 41 38 37 33 30 30 25 26 27 29 26 23 23 24 24 25 27 32 50 54 56
57 57 56 57 57 57 58 57 58 57 57 55 52 35 35 34 40 40 39 42 40 41 39 39 37 34 33 31 29 30 30 30 30 29 29 27 25 24 24 23 26 27 36 49 54
57 57 57 57 57 57 54 41 40 30 42 38 36 38 37 38 41 38 40 40 41 38 35 37 34 31 32 33 32 32 32 31 32 33 30 28 26 23 24 22 22 25 29 41 48
57 57 56 56 56 56 47 43 43 43 40 44 43 42 40 40 36 37 39 36 36 33 33 33 31 33 36 37 36 34 32 31 31 31 30 29 26 24 22 22 21 22 31 37 46
56 57 56 56 56 46 42 42 45 46 42 41 42 39 37 38 35 36 37 37 35 32 33 32 33 36 36 36 35 34 33 33 32 34 30 27 26 25 22 22 21 23 29 35 42
57 56 56 56 40 43 41 43 43 47 35 36 35 36 38 43 37 39 39 37 35 32 34 31 36 36 37 36 36 33 35 35 35 35 29 26 24 25 22 21 23 34 38 47 56
57 56 55 54 44 41 42 44 45 46 23 31 34 37 35 35 31 33 40 36 34 33 30 22 29 34 36 34 36 34 38 38 36 34 34 32 28 24 27 28 37 38 41 44 55
57 56 55 48 46 44 46 47 46 30 22 29 33 29 25 30 29 33 36 34 36 30 28 25 30 37 35 36 36 37 39 38 36 34 28 33 28 24 36 39 41 43 44 44 51
57 56 53 48 39 45 48 42 25 25 29 26 27 25 26 26 27 27 25 23 21 19 19 26 27 35 37 33 36 38 37 30 24 28 28 35 32 28 39 42 44 45 46 49 50
56 54 50 47 45 48 44 27 22 29 28 30 26 26 25 26 25 26 25 24 24 25 24 24 23 31 31 31 32 37 38 32 22 27 29 36 31 36 39 43 46 45 48 50 52
52 40 44 44 47 46 31 21 24 28 28 27 26 21 23 25 26 24 24 25 25 25 21 24 26 31 29 30 35 34 36 39 33 34 29 33 35 38 42 43 46 47 47 48 51
44 41 37 46 48 39 28 29 26 29 28 29 24 26 22 23 23 23 23 28 27 28 26 25 24 26 27 31 36 37 40 35 36 28 20 27 25 29 40 42 45 47 48 48 49
41 27 35 45 40 32 23 23 27 26 30 27 26 25 24 25 24 22 23 28 29 27 29 26 22 21 25 24 27 26 28 38 36 36 30 23 23 30 32 35 35 44 49 47 44
38 20 37 38 27 32 24 25 33 26 28 28 30 28 26 26 24 23 24 26 29 29 25 27 24 21 21 24 26 21 22 34 31 31 34 31 27 30 32 33 35 36 37 39 39
27 27 38 34 22 25 22 26 27 28 27 28 28 30 28 26 24 26 25 30 30 27 25 25 22 20 17 18 23 21 21 26 36 35 30 26 27 31 31 32 34 36 38 37 36
29 19 32 34 31 22 22 24 24 30 29 28 26 28 27 25 26 24 22 27 27 26 41 34 26 21 19 19 23 22 23 22 29 17 17 25 20 22 31 32 33 34 35 34 34
29 23 28 28 29 25 24 24 22 21 28 26 24 25 23 21 21 20 21 18 22 33 26 23 20 23 24 24 24 24 24 22 19 18 13 18 20 23 29 31 32 34 34 33 32
25 21 27 23 25 24 28 22 21 22 17 16 16 23 16 15 16 15 19 17 16 20 18 18 18 24 23 24 25 23 22 22 18 14 18 23 24 29 30 31 31 32 32 31 30
32 35 29 31 26 27 27 25 24 20 22 22 22 20 17 17 19 22 22 20 17 17 15 14 23 24 21 23 25 20 20 21 17 24 20 20 25 28 28 29 30 30 31 30 30

GFSSW_sfc_dewp_105.txt.gz
Dewpoint
58 58 58 59 59 59 60 60 60 60 60 61 61 61 61 61 60 53 30 38 52 58 57 46 41 39 37 37 42 50 45 43 45 47 48 48 44 55 57 55 56 57 55 56 62
58 58 58 59 59 59 59 60 60 60 60 61 61 61 60 61 54 41 42 55 55 58 48 44 39 39 33 34 34 40 43 43 46 46 46 44 40 38 50 51 52 55 57 59 63
58 58 58 59 59 59 59 59 59 59 60 60 60 61 61 60 34 33 52 55 55 58 51 48 45 39 33 30 29 34 38 42 41 39 40 40 36 36 50 51 52 52 55 58 62
58 58 58 58 59 59 59 59 59 59 59 60 60 61 61 55 27 35 57 55 58 48 41 38 33 31 29 28 29 25 26 28 30 34 37 35 33 30 51 48 53 56 57 57 60
58 58 58 58 58 58 58 58 59 59 59 59 60 60 55 34 30 39 60 53 42 41 41 39 36 35 31 30 28 25 26 30 30 31 29 28 28 28 30 48 54 59 58 58 58
58 58 58 58 58 58 58 58 58 58 59 59 60 59 47 30 33 40 50 39 42 42 40 41 40 38 34 33 30 28 29 31 30 28 29 26 26 30 31 41 55 58 58 57 59
57 57 57 56 57 57 57 58 58 58 59 59 59 54 44 33 35 36 42 41 43 43 41 41 42 37 37 33 34 32 30 30 29 27 25 28 23 23 27 35 50 55 57 58 58
57 57 56 56 56 57 57 58 59 59 59 59 58 52 36 44 40 39 40 41 43 43 43 42 43 41 38 36 35 31 29 28 29 28 28 25 23 24 25 23 23 43 53 58 59
57 56 56 56 57 57 58 58 59 59 59 58 52 48 32 46 38 39 40 39 41 42 43 41 41 38 37 33 31 31 28 29 30 30 31 26 26 26 27 23 23 25 40 55 58
57 57 56 57 57 58 58 56 59 58 57 55 51 29 28 30 38 40 40 41 40 40 39 38 37 34 33 31 29 30 30 31 31 32 31 31 29 27 27 25 22 22 26 48 57
57 57 57 56 57 58 51 39 36 26 40 37 36 37 36 38 40 38 40 40 39 36 32 35 33 31 32 33 32 33 33 32 33 33 33 31 30 28 28 24 23 22 22 29 47
57 57 56 56 57 55 45 42 42 43 35 42 43 42 42 40 35 35 39 35 35 31 33 33 31 32 35 37 36 34 33 32 33 33 32 32 31 29 26 24 24 22 21 25 33
57 57 56 56 56 45 41 41 44 46 39 39 42 39 38 39 34 34 38 36 34 32 32 32 31 35 37 36 35 34 33 33 33 35 34 31 30 29 26 24 22 22 28 37 34
57 57 56 55 42 43 41 43 43 46 31 31 35 34 37 41 34 39 39 37 33 32 34 29 33 31 36 35 36 33 35 35 37 36 35 35 29 31 28 26 28 39 40 43 45
57 57 56 53 42 41 42 45 46 44 21 30 33 37 30 35 31 32 40 36 34 33 32 22 25 30 34 32 35 33 37 38 38 36 36 34 33 29 29 38 41 43 44 45 45
57 57 55 47 45 44 46 47 45 26 21 29 32 25 25 27 29 34 26 29 34 25 26 24 29 35 34 34 35 36 39 37 35 33 27 35 34 26 37 40 42 45 46 47 47
57 56 53 48 36 45 47 40 23 23 29 27 25 25 25 26 26 27 24 23 22 20 20 25 25 29 36 31 34 38 36 29 22 24 27 36 33 30 37 41 44 45 46 50 52
56 53 51 47 46 47 41 23 21 28 28 30 26 26 25 26 25 25 26 24 25 24 23 23 19 26 31 29 28 36 36 33 22 25 28 35 32 36 40 44 47 47 49 52 53
51 39 40 43 47 44 27 21 20 27 28 26 25 23 22 25 25 23 25 24 25 25 20 23 23 28 30 28 34 32 34 37 33 34 27 32 34 39 40 43 47 48 47 48 52
43 40 37 46 46 35 26 27 26 28 27 28 23 25 20 23 23 22 23 27 25 28 26 24 23 25 26 31 34 36 38 33 33 26 24 27 25 29 32 39 41 48 46 46 47
38 22 30 44 38 29 21 23 26 25 29 24 25 24 24 25 24 22 22 27 28 27 28 25 22 20 23 23 22 23 23 36 34 35 29 24 24 30 32 34 36 43 45 45 43
34 15 35 36 25 31 25 26 32 24 28 27 29 28 25 26 24 23 23 23 29 28 24 26 23 21 19 23 25 24 20 32 28 25 33 32 26 31 32 34 37 38 43 43 43
23 25 36 31 22 26 24 25 26 26 25 26 27 29 27 25 23 25 26 30 26 24 20 24 21 15 12 16 22 22 23 23 35 31 27 23 23 30 31 33 35 38 36 38 38
27 17 32 33 30 25 21 24 23 29 27 27 25 27 26 24 25 24 23 27 25 29 37 30 24 16 12 14 22 22 23 24 25 16 14 21 21 22 30 32 34 34 34 34 33
27 20 27 26 29 23 25 25 21 22 27 27 25 25 21 18 21 21 21 18 20 29 24 22 18 22 23 24 24 24 24 24 18 18 16 17 21 26 29 31 32 34 33 32 31
25 20 27 26 28 26 29 23 22 22 20 17 16 21 20 18 19 17 16 16 14 19 15 15 4 23 23 24 24 24 23 22 16 14 21 23 25 29 31 31 32 33 32 31 30
29 34 28 30 25 26 26 25 24 22 21 20 19 21 18 18 17 17 17 18 15 17 14 14 16 22 18 23 24 19 17 20 18 23 21 22 23 29 29 30 30 31 31 30 29

GFSSW_sfc_dewp_108.txt.gz
Dewpoint
58 58 59 59 59 60 60 60 60 60 60 61 61 61 61 61 59 48 29 37 53 58 56 45 40 39 35 35 41 50 44 41 44 46 47 45 42 51 56 54 55 57 55 57 62
58 58 59 59 59 59 59 59 59 60 60 60 61 61 61 61 53 37 43 53 56 59 47 43 38 39 33 32 34 40 42 42 46 46 45 44 41 37 41 43 51 55 57 62 62
58 58 59 59 59 59 59 59 59 59 59 60 60 61 61 59 32 30 52 54 56 57 50 47 43 36 31 28 27 35 36 42 36 36 36 37 34 37 44 45 49 50 56 61 62
58 58 59 59 59 59 59 59 59 59 59 59 60 61 61 51 26 31 56 56 57 46 41 37 34 31 29 27 29 25 27 27 30 33 31 30 30 31 42 41 44 52 56 61 61
58 58 58 58 58 58 58 58 58 59 59 59 60 60 54 32 32 34 60 50 40 41 40 39 36 35 31 31 29 26 25 27 30 32 32 29 28 27 28 38 45 54 57 59 61
58 57 57 57 56 57 57 57 58 59 59 59 60 59 44 31 34 37 46 40 42 42 41 40 38 39 35 33 32 29 29 31 32 30 29 28 27 29 29 29 35 52 57 57 61
58 57 56 56 57 57 58 58 59 59 59 59 59 54 41 33 35 37 42 40 43 43 41 41 41 37 37 34 35 34 31 31 30 28 28 28 25 23 26 25 34 48 56 57 58
57 56 55 56 56 57 58 58 59 59 59 59 58 50 33 42 41 40 40 40 42 43 44 43 42 40 37 36 34 31 30 30 32 32 30 27 28 28 26 24 23 23 40 57 58
56 55 56 56 57 58 58 58 60 59 59 58 51 46 27 45 37 39 40 39 40 41 43 41 40 37 36 32 32 32 30 30 31 30 32 27 29 29 29 29 24 23 23 43 58
56 57 57 57 58 58 58 57 60 57 55 54 50 25 25 29 37 40 40 41 40 39 37 38 37 33 33 32 30 30 30 32 31 33 32 32 32 32 32 30 26 24 22 23 50
57 57 57 57 57 58 48 34 30 24 38 34 36 34 34 38 40 37 39 39 38 34 31 35 33 30 31 33 33 32 33 32 33 34 33 32 32 32 32 31 27 25 24 23 26
57 57 57 57 57 55 44 42 41 42 28 41 42 42 42 41 34 33 38 34 34 31 33 32 29 31 35 37 36 35 33 33 34 35 33 34 34 34 33 31 27 26 24 22 25
57 57 57 56 55 45 41 41 43 46 34 36 41 40 38 39 34 33 38 36 33 32 32 31 28 35 33 35 34 33 33 33 33 37 36 36 32 31 31 27 25 33 39 41 41
57 57 57 56 44 43 41 43 44 46 27 26 34 33 37 40 32 38 39 36 33 31 33 28 29 27 32 34 34 31 34 36 37 35 32 37 28 32 33 30 39 42 44 45 45
58 57 56 54 40 40 42 46 47 39 18 28 32 35 26 35 32 31 36 37 32 27 30 16 22 26 33 30 34 31 35 38 37 35 30 34 31 28 36 36 39 41 45 46 48
58 57 56 44 43 43 47 46 43 24 19 28 30 23 25 28 28 31 27 28 31 24 26 26 28 31 34 34 34 36 38 34 33 31 26 35 31 28 36 39 40 43 45 48 51
57 56 53 47 34 45 47 37 20 20 28 27 25 25 25 25 25 27 24 24 22 18 19 23 22 27 35 27 30 38 34 26 23 23 22 35 34 35 39 43 46 46 48 50 52
56 53 48 47 46 47 37 21 18 27 27 29 26 25 24 26 25 24 26 23 24 23 21 21 15 23 29 27 25 36 34 29 25 25 27 32 30 35 39 40 47 48 48 51 53
50 38 38 42 47 42 26 19 18 25 27 25 22 22 21 23 25 21 25 25 24 25 20 22 20 26 28 27 33 30 32 36 32 28 28 26 32 40 39 37 41 46 47 47 48
42 38 35 46 45 33 25 26 25 29 26 26 19 24 20 22 23 22 22 27 26 27 26 23 22 23 25 30 32 35 37 30 31 22 23 26 25 27 33 36 41 45 45 44 43
35 17 28 43 37 27 21 23 27 26 28 23 23 23 23 25 24 22 22 25 27 27 27 24 23 18 21 21 21 23 21 32 32 32 24 25 24 30 32 37 42 44 44 43 41
30 7 32 35 25 30 25 25 32 24 27 28 27 26 24 25 24 23 23 23 26 26 17 25 22 21 18 21 24 24 20 30 28 26 30 29 29 31 33 36 40 38 40 41 40
22 20 33 30 19 26 26 24 26 25 25 26 26 28 27 24 22 24 25 29 25 20 17 23 20 13 4 14 19 21 23 23 31 29 25 19 17 28 32 34 36 36 35 35 35
25 12 31 31 29 26 21 22 23 29 27 25 24 27 26 24 25 24 23 27 25 31 36 29 23 14 6 8 19 19 21 24 24 17 14 20 20 24 29 32 34 34 33 32 32
26 18 27 28 29 24 24 25 22 23 27 26 25 25 22 17 21 20 23 18 19 26 20 16 13 21 22 22 22 22 22 24 21 18 15 15 19 27 29 32 34 33 32 31 31
19 18 26 27 29 24 29 24 22 23 25 25 19 23 20 16 20 21 17 15 13 17 12 14 1 20 18 23 24 24 25 26 22 13 18 22 22 28 31 33 33 32 31 30 30
29 32 29 30 28 25 26 25 25 22 21 20 22 21 19 20 20 21 18 17 14 15 13 12 15 22 16 21 24 19 20 19 15 22 18 20 22 29 29 30 32 32 31 30 30

GFSSW_sfc_dewp_114.txt.gz
Dewpoint
58 59 59 59 59 60 60 60 60 60 60 60 61 61 62 62 60 39 31 38 49 60 56 40 38 35 37 41 47 51 35 29 32 34 34 40 43 45 46 45 41 45 51 55 62
58 59 59 59 59 59 59 59 59 59 60 60 61 61 62 61 42 34 42 50 57 60 40 36 33 35 31 32 38 39 34 27 34 35 35 36 39 39 40 42 42 42 49 57 63
58 58 58 58 58 58 58 58 59 59 60 60 60 61 61 58 31 33 50 53 58 50 42 39 35 33 31 30 28 34 28 28 30 33 34 34 33 32 33 35 37 40 39 57 61
58 58 58 58 58 58 58 58 58 59 60 60 60 61 61 44 23 33 54 55 54 42 39 37 36 32 32 29 29 26 26 29 29 28 27 26 24 22 23 27 29 33 30 42 57
58 58 57 57 57 57 58 58 59 59 60 60 60 61 52 32 32 33 59 51 40 41 39 39 36 36 33 33 31 28 30 30 31 32 34 33 33 31 27 25 25 25 32 41 51
58 57 56 56 57 58 59 59 60 60 60 60 60 60 39 27 34 35 39 39 40 40 39 39 38 37 34 34 33 33 34 34 34 34 33 33 32 28 26 27 26 27 28 30 37
56 56 56 56 57 58 59 59 60 60 59 59 59 51 35 31 37 38 39 38 40 41 39 40 40 38 37 34 36 35 33 32 32 32 33 30 30 30 27 30 27 26 28 29 41
56 56 56 57 57 58 58 59 60 59 59 59 58 47 29 40 41 39 39 39 41 42 42 42 42 38 37 37 35 33 32 31 32 34 32 31 28 30 31 32 32 31 29 31 29
56 56 56 56 57 58 57 60 60 59 58 57 48 39 26 43 33 38 40 38 40 40 42 40 40 37 36 33 30 32 28 30 32 33 34 33 32 33 35 35 35 33 31 30 31
57 57 57 57 57 58 56 57 58 53 53 50 43 31 28 29 36 39 39 40 38 38 36 36 36 33 31 28 24 27 28 29 30 31 33 34 34 35 37 36 37 36 33 32 30
57 58 57 57 57 56 47 34 30 28 35 30 32 31 31 37 40 34 38 38 36 33 27 34 29 25 27 30 31 31 30 29 31 33 35 33 34 33 37 35 33 35 34 32 31
57 58 57 57 57 51 43 35 42 43 31 39 39 39 39 40 31 32 37 31 33 29 30 27 25 27 30 31 30 27 27 28 32 35 35 33 31 32 37 38 39 40 40 40 40
57 58 57 56 56 45 42 41 44 46 30 34 39 38 36 37 31 32 31 33 32 29 27 24 24 28 25 26 25 24 26 29 32 34 36 33 29 32 34 37 38 40 43 42 43
58 58 56 55 45 42 40 45 46 47 23 26 31 33 32 34 30 33 32 34 31 27 27 23 24 22 26 23 27 25 29 34 35 30 26 32 25 27 32 37 39 40 42 44 46
58 58 56 51 40 36 43 48 48 46 21 28 30 29 29 29 30 29 30 31 29 27 26 18 20 23 26 22 29 26 36 36 34 31 31 30 30 28 35 37 38 40 44 46 48
58 57 55 43 42 44 47 47 45 28 20 28 27 22 24 26 26 28 27 27 28 23 23 22 25 27 28 27 30 33 35 34 33 31 25 31 30 27 36 38 39 42 45 46 50
57 57 50 44 34 47 48 42 24 20 27 26 23 22 24 23 24 25 26 24 22 18 18 20 17 24 29 26 29 32 33 36 29 32 26 30 30 31 37 39 42 47 46 47 49
57 50 45 45 46 47 42 25 21 22 23 27 23 24 22 24 23 23 25 23 25 23 21 19 12 19 24 26 27 31 35 35 31 27 33 32 34 34 38 40 46 46 47 47 47
50 34 35 43 47 45 31 22 20 24 25 23 22 19 21 21 23 21 23 24 23 23 18 20 17 22 25 29 34 26 29 38 35 33 31 32 24 35 38 38 42 44 45 45 46
42 28 31 46 47 37 27 28 23 27 24 21 16 21 18 19 22 21 20 24 24 24 24 22 20 19 20 32 30 29 34 29 35 32 25 19 19 28 37 36 38 41 42 43 45
33 12 36 48 38 31 22 22 26 28 25 20 19 21 19 23 23 20 20 24 26 20 24 23 21 13 22 17 20 24 22 26 33 32 26 18 18 28 32 36 37 37 41 41 42
27 3 39 40 27 29 23 25 32 26 27 26 24 23 23 25 23 22 21 24 25 19 14 23 20 12 10 18 23 24 22 21 25 21 31 28 20 29 32 35 36 36 38 38 39
18 18 37 34 18 23 28 24 27 25 25 26 25 26 27 25 23 23 24 27 24 20 19 24 17 10 10 20 20 15 18 20 26 31 22 23 17 28 31 34 35 36 37 36 38
19 10 33 34 30 20 24 23 24 26 25 25 25 27 26 24 25 24 24 27 25 25 36 30 24 17 10 9 14 10 14 14 18 21 13 15 17 25 30 34 35 35 36 36 37
23 13 22 26 28 24 24 23 22 23 25 24 25 26 24 24 23 24 25 24 19 27 24 25 17 16 14 12 12 13 13 14 18 22 15 14 16 21 29 33 34 35 35 35 36
25 16 24 24 24 24 26 23 22 23 24 24 23 25 25 22 23 23 23 21 21 20 17 16 10 12 14 17 21 21 22 23 23 24 22 19 16 24 31 33 33 33 35 35 33
30 28 20 28 25 22 19 19 24 24 25 25 25 26 24 23 23 23 23 22 20 17 16 15 17 14 12 16 19 17 20 23 24 22 13 11 21 31 31 32 33 33 34 34 33

GFSSW_sfc_dewp_117.txt.gz
Dewpoint
59 59 59 60 60 60 60 60 59 60 60 60 61 61 62 63 61 45 31 40 49 61 61 37 36 32 34 39 43 43 37 29 27 27 30 31 35 38 42 43 42 43 48 53 64
59 59 59 59 58 59 59 59 59 59 60 60 61 61 62 62 43 32 45 50 58 62 38 36 34 32 30 30 36 38 34 30 30 31 30 30 32 35 38 38 37 38 43 53 61
58 58 58 59 58 58 59 59 59 59 60 61 61 61 62 58 38 31 51 53 58 55 39 37 36 32 30 30 28 28 30 26 25 26 27 28 30 30 30 31 33 36 39 50 55
58 58 58 57 57 58 58 59 59 60 60 60 61 61 62 50 26 34 52 53 56 44 38 36 36 35 33 32 30 27 26 27 30 30 30 26 25 24 23 25 24 28 32 38 45
58 58 57 57 57 58 59 59 60 60 60 60 60 61 54 35 30 37 51 51 40 39 37 37 34 35 33 32 32 31 29 32 32 33 33 33 32 30 29 28 24 22 22 24 30
57 57 57 57 57 58 59 59 60 60 60 60 60 60 46 26 34 36 38 38 39 39 37 36 35 36 34 33 33 33 33 33 32 32 33 32 32 31 30 26 25 23 23 21 30
57 57 56 57 57 58 59 59 60 60 60 60 60 52 36 32 36 37 39 38 40 40 39 38 38 37 35 33 34 33 32 33 31 31 31 32 29 29 30 27 28 26 22 25 25
56 56 56 57 57 58 58 59 60 58 59 59 59 46 29 38 37 37 38 37 40 41 41 41 41 38 36 36 34 32 32 29 31 32 33 32 31 31 30 30 31 30 29 28 28
56 57 56 56 57 58 57 59 60 58 58 58 50 39 27 42 33 36 38 36 38 39 41 38 40 36 35 30 27 30 25 28 30 32 32 32 32 34 34 35 35 35 33 30 28
57 58 58 57 57 57 57 57 56 54 54 46 39 32 28 27 35 37 36 39 37 37 37 36 34 33 25 24 21 24 26 28 28 29 31 32 32 34 35 35 35 34 34 33 29
58 58 58 58 57 57 49 41 34 31 35 31 28 25 25 32 37 32 35 35 35 33 24 30 30 24 25 27 27 26 25 26 28 31 34 32 32 32 35 35 37 38 38 34 31
57 58 58 57 56 56 45 29 39 43 28 35 35 35 36 36 30 30 32 27 26 25 24 26 24 24 26 26 25 23 24 26 29 31 32 30 31 32 33 36 38 36 37 39 39
57 58 58 56 56 47 41 38 43 44 30 31 34 34 33 33 26 29 29 26 25 24 21 22 23 22 21 24 21 24 25 27 29 31 32 29 30 30 34 37 39 40 42 40 41
58 58 57 55 46 38 39 45 46 47 25 27 30 33 31 29 30 30 29 29 25 25 25 20 21 21 21 20 23 25 29 35 34 30 24 29 25 30 33 38 39 41 43 45 45
58 58 57 55 40 35 41 47 48 46 23 28 30 29 26 29 29 30 30 26 25 23 22 20 19 22 22 20 25 25 31 36 34 31 29 27 27 27 33 37 39 41 45 45 46
58 57 56 42 39 41 45 48 47 31 23 28 28 24 21 25 25 25 24 27 26 23 23 18 22 24 24 24 26 29 29 35 34 31 26 26 29 26 34 38 40 45 46 46 47
57 57 53 35 35 45 47 45 29 23 26 26 25 22 20 22 22 21 23 23 21 20 18 16 18 20 25 25 27 29 31 36 29 30 23 28 29 33 37 39 45 46 45 46 48
57 55 45 35 42 45 44 32 24 22 19 26 22 21 22 22 20 22 22 23 23 21 20 16 15 15 19 26 25 30 32 34 30 26 31 30 31 33 38 40 44 47 45 46 48
55 37 26 32 44 44 35 25 21 22 24 23 20 20 21 21 23 21 20 23 22 22 18 17 16 18 21 27 28 26 25 34 35 35 33 29 26 36 37 36 38 43 45 45 47
39 24 17 42 43 40 31 27 22 25 24 23 20 20 18 19 22 20 20 24 24 22 21 21 15 15 14 27 29 26 29 29 33 33 25 17 16 20 30 35 37 42 43 44 47
36 12 35 45 43 32 23 22 24 27 24 21 20 21 19 21 22 19 19 24 25 23 22 18 17 16 18 18 19 23 22 22 31 28 25 19 19 25 28 35 36 41 41 42 46
29 3 40 44 24 13 15 21 33 28 27 23 22 22 21 23 23 21 20 23 25 21 20 20 21 14 10 18 22 23 19 19 20 20 25 26 23 26 30 35 37 39 39 41 43
23 16 41 38 12 7 17 24 27 27 26 24 24 24 24 25 24 23 23 29 25 23 21 24 20 15 14 22 20 14 12 15 14 27 23 19 17 27 30 35 38 39 39 39 40
23 12 33 36 21 13 13 20 23 27 25 24 25 26 26 24 25 25 25 29 27 24 35 29 25 21 15 15 15 14 13 14 12 20 15 13 7 23 28 34 38 39 39 38 38
30 17 14 22 20 21 14 16 19 24 24 24 25 25 24 23 24 24 26 26 24 31 27 26 24 18 17 13 12 13 13 11 10 17 19 14 13 14 27 32 38 39 39 40 38
34 22 15 12 13 14 20 15 17 21 23 23 22 25 24 23 24 24 26 24 23 23 23 20 18 14 18 16 16 19 19 20 19 21 21 21 17 16 29 32 35 38 38 38 38
45 33 21 21 11 12 16 12 14 19 23 22 23 24 24 23 24 25 25 25 23 21 23 20 19 20 16 16 17 18 20 20 19 23 22 12 21 27 30 31 32 37 38 37 36

GFSSW_sfc_dewp_120.txt.gz
Dewpoint
59 59 59 59 59 59 59 59 59 60 60 60 61 62 62 63 62 45 34 41 50 62 63 50 39 36 40 48 49 51 42 36 33 31 33 32 31 33 39 41 43 45 47 62 59
59 59 59 59 59 59 59 59 59 60 60 60 61 62 61 62 48 34 46 53 60 64 43 37 36 35 38 41 43 42 40 35 30 32 31 30 32 33 33 38 39 38 42 59 57
59 59 59 58 58 59 59 59 59 60 60 61 61 61 61 60 42 36 58 54 61 58 41 37 37 35 38 39 35 35 33 31 27 27 29 26 24 24 26 32 32 31 32 56 61
59 59 58 58 58 58 59 60 60 60 61 61 61 61 62 53 30 38 60 59 61 50 38 35 37 42 42 37 37 32 30 29 34 33 32 31 31 29 29 31 28 27 25 25 42
58 58 58 58 58 58 59 60 60 61 61 61 61 61 55 43 30 41 59 57 43 39 36 35 34 37 36 33 33 32 32 31 33 34 35 34 34 33 32 32 30 28 25 25 25
58 57 57 57 57 58 59 59 60 60 60 60 60 60 51 35 33 36 37 38 38 39 37 37 35 36 36 34 34 33 33 33 33 33 33 32 33 33 33 32 31 27 26 24 23
57 57 57 57 58 58 59 59 60 61 60 60 60 54 42 33 35 38 38 38 39 40 39 37 38 37 37 35 37 33 33 34 34 35 34 34 32 32 31 30 28 27 28 24 25
56 57 57 58 58 57 59 59 61 59 59 59 60 49 35 36 38 37 36 36 40 40 40 43 41 40 38 37 36 33 34 32 32 35 35 35 32 35 34 32 33 34 32 32 30
56 57 57 58 58 58 58 58 60 59 59 59 52 44 32 43 33 34 37 34 35 38 42 37 40 40 38 34 26 32 24 27 30 33 32 32 32 34 36 35 35 35 35 35 34
57 58 58 58 58 58 58 57 59 55 55 50 42 34 29 26 34 35 36 38 36 36 36 38 38 35 35 26 23 24 23 24 27 32 33 34 32 34 35 35 36 36 36 37 34
57 58 58 58 58 57 52 43 38 36 37 32 29 25 24 29 36 34 33 33 35 33 32 32 30 28 25 28 25 25 23 24 27 33 34 33 32 33 37 38 39 39 40 40 39
58 58 58 58 57 56 50 36 40 43 32 33 32 30 31 32 29 30 33 27 28 26 27 25 29 23 23 24 25 23 24 26 28 31 31 33 32 35 36 38 40 40 40 41 43
57 58 58 57 56 48 41 39 42 44 39 31 28 30 33 31 27 28 29 28 24 25 26 23 24 21 19 23 21 23 26 31 32 33 32 32 31 32 35 39 40 41 43 44 45
57 57 58 57 50 37 38 44 45 47 32 27 29 30 34 31 30 30 29 29 25 26 27 23 21 19 23 20 23 24 29 31 35 32 28 31 26 35 34 37 40 41 45 45 45
57 57 57 56 45 37 40 47 48 47 26 29 30 30 25 28 29 30 32 28 26 23 27 26 23 24 23 22 24 25 30 30 35 33 31 28 27 31 35 37 40 43 45 46 46
57 57 57 43 44 41 43 48 48 33 24 27 28 26 22 26 26 26 26 31 31 25 24 23 24 28 24 24 27 30 31 34 37 34 30 28 30 31 35 39 42 45 45 46 48
57 57 55 41 35 45 47 46 29 26 28 27 26 25 21 23 22 20 23 26 24 24 26 22 21 24 26 26 31 32 31 35 30 31 26 29 31 34 37 41 45 45 45 46 48
57 57 52 38 36 46 44 39 30 25 23 27 25 21 20 22 22 21 24 25 26 23 23 22 20 21 19 29 28 29 31 33 26 27 30 34 30 34 39 42 45 46 45 46 48
56 47 44 32 35 44 38 31 24 25 25 24 21 20 21 21 23 23 24 25 24 23 22 21 24 21 21 25 27 27 27 36 34 35 33 34 32 37 35 37 43 45 45 46 47
46 36 28 26 39 40 34 30 26 26 26 25 21 22 22 21 22 23 22 27 26 26 26 25 18 18 17 26 31 29 31 30 36 27 25 22 20 22 32 36 41 42 43 46 47
46 30 31 39 38 34 27 26 26 26 26 24 23 23 22 21 23 21 22 27 29 26 27 24 20 20 23 23 20 27 25 25 28 30 25 21 22 25 33 37 40 40 42 45 47
39 22 39 41 33 23 22 22 31 28 29 27 27 26 23 25 24 24 23 27 28 28 25 24 24 21 17 22 24 25 21 18 21 23 24 25 24 28 35 37 39 40 42 42 47
37 29 40 40 16 11 11 16 20 29 27 26 25 29 29 26 27 27 27 33 31 29 29 29 25 20 21 25 24 20 19 18 16 20 26 18 22 27 34 38 39 40 41 40 42
34 22 35 38 32 11 5 7 19 30 28 25 24 27 27 26 29 27 28 31 31 31 38 35 27 24 21 23 22 19 18 15 15 15 19 16 15 26 31 37 39 40 39 38 41
43 24 24 27 27 25 16 8 20 26 27 25 27 27 26 25 26 26 28 28 29 37 29 29 27 25 23 18 16 15 16 16 13 12 16 20 19 16 28 35 39 40 40 38 38
43 32 21 18 19 17 22 16 16 22 24 24 26 27 26 26 26 25 27 28 25 28 28 26 22 21 19 20 19 17 19 20 17 12 14 21 22 23 30 36 39 39 40 39 37
49 49 35 27 12 15 13 17 16 20 24 24 25 27 26 26 27 28 29 28 25 26 27 24 23 24 21 19 19 19 20 21 22 22 22 22 26 30 30 32 36 38 39 39 37

GFSSW_sfc_dewp_123.txt.gz
Dewpoint
59 59 60 60 60 59 59 59 60 60 60 61 61 62 62 63 61 48 36 43 52 63 65 54 50 36 38 42 44 43 37 36 34 30 31 29 28 32 36 35 42 48 51 57 60
59 59 59 59 59 59 59 59 59 60 60 61 61 62 62 62 52 37 52 60 60 65 49 39 39 38 35 35 39 39 37 36 32 27 27 28 27 26 24 25 30 37 59 59 60
59 59 59 59 59 59 60 60 60 60 61 61 62 62 61 61 45 39 59 60 61 62 50 43 38 37 36 33 31 31 30 32 29 33 34 33 32 32 30 29 28 27 43 58 57
58 58 58 58 58 58 59 60 60 61 61 61 62 62 62 55 32 40 62 61 61 57 47 36 36 38 37 36 35 30 30 32 33 36 35 32 33 32 33 33 33 32 27 43 59
58 58 58 58 58 57 58 59 60 60 61 62 61 61 56 45 37 43 62 58 51 42 39 38 34 35 34 33 33 32 33 34 34 35 35 34 34 34 34 34 33 32 29 27 26
57 57 57 57 57 57 58 59 59 60 61 61 61 60 51 41 36 41 45 39 42 41 40 38 37 37 35 34 34 34 34 34 34 34 35 34 34 34 32 34 32 29 26 26 25
57 57 57 58 58 58 58 59 59 61 61 60 60 56 47 41 35 37 38 39 40 44 43 41 40 38 38 35 36 34 32 34 35 34 34 34 33 34 35 34 35 35 35 34 33
57 56 57 58 58 57 58 59 60 61 60 60 61 53 42 38 38 38 38 39 41 42 43 44 43 43 40 37 35 35 33 30 31 33 35 33 30 35 36 35 35 35 36 37 38
57 56 57 58 58 58 58 58 59 61 61 60 54 48 37 44 35 36 37 38 39 39 41 39 42 40 39 36 27 26 23 23 27 34 34 33 32 35 36 36 37 38 39 40 40
57 58 58 58 58 58 58 57 57 57 54 54 51 36 35 30 37 37 37 39 38 39 41 40 38 35 33 26 22 23 23 22 23 32 33 34 32 37 39 40 40 40 40 41 42
58 58 58 58 58 57 53 44 37 37 41 36 33 30 28 33 38 35 36 36 38 37 32 37 28 25 24 26 25 24 24 23 28 34 33 32 33 37 39 39 39 40 41 42 43
59 58 57 57 57 56 53 42 40 43 39 37 34 33 33 33 32 33 34 31 29 26 26 23 24 22 23 24 26 24 26 27 34 36 32 31 34 36 39 39 40 40 42 45 45
59 58 57 57 56 50 44 42 43 45 40 35 34 30 35 33 31 32 30 30 27 24 25 20 25 25 24 23 23 24 27 28 33 36 34 31 32 36 38 40 41 41 44 46 45
59 57 57 57 49 43 41 46 45 47 31 29 31 34 35 35 32 32 32 31 28 26 27 23 23 24 24 24 24 23 29 30 32 33 28 29 25 33 34 36 39 43 45 45 46
58 57 56 56 44 42 42 47 47 45 22 33 32 34 32 31 33 33 33 31 30 24 19 18 24 25 25 24 25 25 30 30 32 32 32 28 27 32 35 36 38 44 45 45 47
58 56 56 47 50 44 44 48 47 32 24 30 31 28 25 30 29 33 30 33 30 27 25 22 25 26 24 24 27 29 31 36 35 33 29 27 29 29 35 37 41 45 45 46 48
58 56 55 50 35 43 46 46 24 29 30 28 28 28 24 26 25 23 25 26 22 21 22 24 23 27 28 26 29 28 30 24 23 24 25 32 30 32 36 41 44 45 45 47 48
57 56 54 49 44 40 44 40 32 30 26 31 29 25 22 23 22 23 25 26 25 23 22 20 18 22 20 28 26 26 31 24 11 21 25 33 26 33 38 45 46 45 46 47 48
56 51 50 44 46 41 39 35 30 30 28 25 24 21 22 24 23 22 22 24 23 22 20 20 22 22 19 23 27 25 25 33 30 32 28 30 31 36 37 41 42 43 46 46 47
49 44 39 39 37 41 36 33 31 30 28 26 20 22 22 22 20 22 21 26 26 25 24 22 15 19 24 26 31 26 30 26 32 17 20 23 22 23 35 38 41 42 44 46 47
47 39 38 33 38 37 32 29 28 30 28 24 22 22 23 22 22 21 22 26 29 27 25 21 17 18 20 22 23 27 25 24 26 29 23 22 22 28 35 40 40 42 43 45 46
46 32 34 35 33 33 28 23 31 28 30 28 26 25 22 24 22 22 22 27 28 26 23 23 22 20 18 23 23 22 19 17 22 20 23 23 24 35 37 39 40 42 40 44 47
44 39 39 36 18 22 16 18 22 30 27 27 24 27 25 25 23 24 29 33 28 26 24 25 23 19 16 23 22 19 21 14 15 21 24 18 19 35 38 39 40 41 40 42 43
45 36 39 38 31 14 10 10 13 26 30 27 25 27 25 25 27 26 29 30 29 34 40 33 25 22 19 21 21 16 16 14 13 13 19 16 22 30 37 39 40 40 39 41 37
45 37 39 33 34 33 22 6 9 13 29 27 25 27 25 24 25 25 30 28 30 39 28 27 25 26 25 24 17 15 17 17 13 12 12 17 19 25 35 39 39 39 38 39 38
42 41 42 34 24 31 31 20 4 14 26 26 26 28 26 25 25 25 28 26 24 32 26 25 20 21 19 21 19 17 20 20 17 15 12 13 17 24 34 39 39 40 39 37 36
48 48 45 38 24 22 20 20 16 17 27 26 28 27 26 26 27 27 28 28 27 26 27 22 22 22 19 21 20 19 20 21 21 19 14 16 23 31 38 39 39 40 40 37 36

GFSSW_sfc_dewp_126.txt.gz
Dewpoint
59 60 59 59 59 59 59 59 60 60 60 61 61 62 62 63 62 50 35 42 50 63 64 55 50 43 36 40 42 43 36 35 35 26 26 29 28 32 29 26 36 51 54 56 61
59 59 59 59 59 59 59 60 60 61 61 61 61 62 62 62 53 37 51 60 62 64 45 43 39 36 34 35 38 39 36 34 33 28 29 32 33 31 31 30 29 35 57 58 59
58 58 59 59 58 58 59 59 60 60 61 61 62 62 61 61 45 38 59 62 63 62 50 47 42 39 35 32 31 34 29 31 30 32 35 33 32 35 33 32 32 30 33 57 57
58 58 58 58 58 57 57 58 60 60 60 61 62 62 62 56 33 39 62 64 64 57 47 38 37 37 36 35 36 28 29 31 34 36 35 33 34 33 34 34 35 35 34 56 57
58 58 57 58 58 57 57 58 59 60 60 61 61 61 57 45 41 39 64 62 54 45 40 39 35 36 34 33 33 32 33 34 34 35 35 34 34 34 33 35 35 34 32 31 33
57 57 57 57 57 57 57 58 59 60 61 61 61 60 51 41 38 41 52 43 42 42 41 38 37 38 36 36 33 34 34 34 34 34 36 33 34 35 35 36 36 36 37 37 37
58 57 57 57 57 57 58 58 59 59 61 60 60 57 48 43 36 40 44 38 40 42 42 42 41 38 39 36 37 35 32 34 34 36 33 35 31 35 36 36 37 38 39 40 40
58 57 56 58 58 57 57 58 59 60 61 59 60 54 40 41 37 38 38 39 41 42 43 42 41 42 40 38 35 34 29 26 27 35 35 33 30 35 37 39 39 40 40 41 42
58 57 56 57 58 57 58 58 58 59 61 59 52 48 36 44 36 37 37 37 39 40 42 39 40 40 38 33 25 26 22 24 25 33 34 32 31 37 40 39 39 39 40 41 42
59 59 58 57 57 58 57 57 57 54 54 56 53 39 35 29 35 36 36 38 38 39 39 40 37 34 29 23 15 22 23 23 23 28 33 33 34 38 40 39 39 39 41 42 44
59 59 58 57 57 57 54 43 36 35 41 32 31 31 31 34 37 35 36 38 38 35 32 37 30 25 22 25 25 25 24 24 28 32 33 32 35 38 39 40 40 40 41 43 45
60 59 58 57 56 56 53 40 39 41 37 40 39 34 33 31 30 33 34 29 33 31 28 24 25 26 23 26 26 25 26 25 31 34 34 32 35 37 39 40 40 41 42 43 46
59 59 58 57 55 50 44 41 42 44 39 38 37 33 33 32 29 31 30 28 26 24 24 21 22 23 24 24 23 23 25 26 28 34 33 33 32 35 37 39 40 41 45 46 45
59 59 58 56 47 41 40 46 45 45 27 26 31 32 34 34 30 32 30 27 28 25 26 22 24 21 24 23 23 22 28 28 29 32 28 28 25 33 35 36 38 43 45 45 46
59 58 57 56 45 39 41 46 47 40 11 27 33 34 34 30 33 31 32 29 26 25 22 17 21 22 23 22 24 23 30 28 30 31 31 28 27 28 36 36 38 43 45 46 48
59 58 56 47 51 45 44 48 44 27 17 31 30 28 27 30 30 34 30 30 30 27 25 21 25 24 22 23 25 28 32 30 36 33 29 27 28 26 33 36 42 44 45 47 48
59 58 55 50 34 42 43 44 28 24 28 28 29 27 24 25 26 25 26 25 22 19 21 23 23 26 27 25 27 28 25 21 18 24 25 31 28 30 36 43 44 44 46 47 48
58 57 55 52 49 45 44 40 23 19 28 32 29 27 22 25 24 22 23 24 23 22 22 19 16 22 20 25 23 26 27 21 3 18 22 32 26 30 40 45 45 45 47 47 48
58 54 52 49 50 43 39 35 27 34 30 27 24 22 22 23 21 22 22 24 24 21 20 20 20 21 18 24 25 25 25 32 27 29 26 29 30 35 40 43 42 44 46 47 48
54 49 43 46 44 40 37 32 32 34 28 26 22 22 21 22 22 21 21 25 24 24 23 21 16 19 23 26 31 25 32 27 29 18 18 23 21 22 32 38 42 44 46 46 47
52 45 42 39 38 37 31 29 28 32 31 23 23 22 22 22 20 22 21 26 27 25 23 19 16 18 20 21 26 27 27 26 26 27 21 21 22 25 34 39 41 42 45 46 47
49 41 48 38 29 32 28 30 32 25 28 29 26 24 24 24 21 22 22 25 30 26 21 21 19 18 19 22 23 23 19 19 20 21 22 22 23 36 37 40 42 41 43 46 46
45 45 50 42 28 26 23 23 24 22 26 26 25 27 26 24 21 24 27 32 30 26 22 23 21 18 16 21 23 18 20 15 19 21 20 20 16 36 38 39 42 40 41 45 45
46 39 43 44 40 28 19 17 15 22 23 27 25 26 25 24 27 27 26 30 29 33 40 31 24 19 17 19 20 16 19 14 14 15 18 21 18 35 38 39 40 40 40 40 44
45 39 40 36 37 35 26 14 11 9 17 23 25 26 24 24 25 27 28 27 29 41 28 24 21 25 25 26 26 21 18 16 13 12 13 16 21 26 36 39 40 40 39 37 39
42 39 42 40 36 35 33 29 10 8 17 22 23 27 25 25 25 25 27 25 23 31 24 26 20 21 18 21 19 17 18 18 18 15 13 13 15 19 32 40 40 39 39 39 36
47 47 44 39 38 36 36 34 25 13 8 14 24 27 26 25 27 28 28 27 26 27 25 24 21 21 17 22 21 18 20 21 20 18 16 13 14 34 38 39 39 39 38 38 35

GFSSW_sfc_dewp_129.txt.gz
Dewpoint
59 59 59 58 58 58 59 59 60 61 61 61 61 62 62 62 60 48 34 42 48 63 64 55 48 41 38 40 41 43 37 35 34 28 24 29 31 31 31 31 30 51 54 56 62
59 58 58 58 58 58 58 59 60 60 61 61 62 62 62 61 50 40 50 60 63 64 45 42 39 38 33 34 37 39 33 31 35 29 26 32 33 32 32 32 29 32 42 58 59
58 58 58 58 58 58 57 58 59 60 60 61 61 62 61 60 41 40 59 61 64 63 50 47 44 40 34 34 33 36 28 31 31 31 32 33 32 35 32 32 32 32 32 40 58
58 58 58 58 58 57 57 58 59 60 60 60 61 61 62 54 31 37 62 63 65 58 49 39 38 35 36 34 35 28 31 29 33 35 36 34 34 32 35 34 36 36 35 43 45
58 58 58 58 57 58 58 58 59 59 60 61 61 61 55 43 38 40 63 62 56 46 40 38 35 35 33 33 34 31 33 34 34 35 35 35 34 33 36 36 37 38 38 38 38
59 58 58 57 57 57 57 58 59 59 60 60 60 60 46 36 41 42 48 48 45 41 41 39 36 36 35 35 33 34 34 34 34 35 35 35 34 34 36 37 39 40 40 40 41
58 58 58 56 57 57 57 58 58 58 60 59 60 56 47 37 37 40 46 38 40 41 40 41 40 37 38 35 37 36 33 31 32 34 35 33 32 35 37 38 39 39 40 41 42
58 58 58 58 57 56 57 58 58 59 60 60 60 53 34 43 40 39 41 38 41 42 43 42 42 40 38 38 31 31 26 23 25 33 35 33 30 37 40 39 38 39 40 41 43
58 59 58 58 57 56 58 57 58 58 60 59 50 47 32 46 36 37 38 37 40 41 42 39 40 39 35 28 21 25 22 23 25 29 34 32 30 37 40 39 39 40 41 42 43
58 59 59 58 57 57 57 56 56 55 56 56 53 43 38 32 34 36 37 38 38 38 38 39 36 32 28 20 15 20 22 23 23 27 33 32 32 37 39 39 39 40 42 43 44
59 59 59 59 58 56 54 43 35 34 45 30 34 37 30 35 37 35 37 37 38 35 31 35 32 25 23 25 23 24 23 23 27 31 35 32 32 36 39 39 39 41 44 45 45
60 59 59 59 57 55 53 40 38 38 30 38 40 39 35 33 31 33 35 31 34 31 31 24 29 30 26 24 24 24 25 24 28 34 34 33 33 37 38 39 40 42 45 45 45
60 59 59 58 56 48 42 42 42 43 31 33 40 37 33 31 27 28 33 29 26 24 24 22 22 26 21 23 22 21 24 24 25 30 33 32 30 35 36 38 38 42 45 45 46
60 59 59 57 45 42 40 45 45 43 21 19 34 32 34 33 30 33 32 28 26 22 25 23 24 21 22 20 22 20 26 28 28 29 27 29 26 30 35 36 38 43 44 45 47
59 59 58 55 46 35 41 45 47 33 10 24 32 35 33 31 30 31 31 28 19 24 22 20 21 22 21 19 23 21 29 29 29 29 30 29 26 26 34 35 39 43 44 46 47
59 59 57 48 50 47 42 46 42 25 13 28 31 30 28 30 31 33 29 29 29 26 24 22 24 21 16 23 24 31 31 30 34 32 28 28 28 26 33 36 41 44 45 47 48
57 58 56 48 31 45 44 42 29 19 24 28 29 28 26 26 27 28 26 25 24 20 21 23 22 25 24 22 28 29 27 22 22 21 24 30 28 28 35 41 43 44 46 47 49
57 56 58 52 49 44 43 40 19 18 26 31 30 27 24 26 25 25 24 23 24 21 22 19 16 22 22 20 18 26 26 20 2 14 19 31 24 27 41 42 43 45 47 48 48
55 55 55 53 53 43 39 35 24 27 24 29 25 23 22 24 23 22 22 24 24 22 18 20 19 21 16 26 25 26 26 30 26 26 24 28 27 34 42 41 42 44 46 47 48
51 51 50 52 51 39 36 31 33 33 31 27 25 24 22 22 20 21 21 24 25 23 22 21 16 19 22 26 30 25 32 26 27 16 16 21 21 23 27 37 42 43 45 46 48
49 46 50 48 48 36 20 19 27 33 31 25 25 23 22 22 22 21 20 25 26 25 23 19 15 17 19 21 25 27 27 25 27 26 19 18 19 25 29 39 41 42 44 46 47
46 40 50 48 38 36 23 21 33 24 31 31 26 24 23 24 21 22 21 24 28 26 21 19 16 16 15 21 24 26 24 22 20 18 22 21 21 33 36 41 43 41 43 47 46
41 42 51 47 35 33 32 20 22 20 23 26 27 27 26 24 20 24 24 31 31 25 22 22 19 17 17 19 22 19 19 19 20 20 20 20 16 35 39 40 42 41 42 46 45
41 36 44 43 40 38 34 26 18 21 20 26 25 26 25 23 26 26 25 29 30 29 38 31 22 17 16 16 21 16 19 16 14 14 15 23 20 34 37 39 41 40 41 45 44
40 36 41 36 37 36 36 33 23 16 15 23 25 25 25 24 25 26 27 26 29 42 28 24 20 23 23 24 25 23 16 16 13 13 13 13 20 19 36 38 41 41 41 40 44
37 37 41 39 36 37 36 35 31 20 14 13 16 25 25 24 25 26 26 24 23 31 23 26 21 24 17 21 24 23 21 20 16 14 15 14 16 22 32 39 40 40 40 38 40
41 43 43 36 37 36 36 36 34 28 16 15 14 10 26 25 27 27 27 26 26 27 24 24 21 19 14 21 20 17 20 19 19 18 15 13 15 29 35 38 40 40 40 39 38

GFSSW_sfc_dewp_132.txt.gz
Dewpoint
58 58 59 59 59 59 59 59 60 60 61 61 62 62 62 62 61 54 33 42 48 61 59 51 43 37 35 40 42 42 37 34 34 28 27 28 32 33 33 30 32 42 49 53 61
58 58 58 58 59 59 58 58 59 60 60 61 61 62 61 61 49 38 51 59 62 63 42 41 38 35 33 34 38 36 30 31 35 28 26 30 33 33 33 32 31 33 35 54 58
58 58 58 58 58 58 58 58 59 60 60 60 61 61 61 60 39 35 59 61 63 58 47 46 43 39 33 34 33 36 28 31 32 34 31 33 33 34 33 32 34 33 34 40 53
58 58 58 58 57 57 57 58 59 60 60 61 61 61 61 53 29 35 63 63 64 55 47 38 37 35 34 33 33 28 31 30 32 34 35 33 35 33 34 36 37 37 35 37 39
58 58 58 58 57 56 57 58 58 59 59 61 61 61 54 37 35 40 65 63 53 44 39 36 34 34 32 33 34 30 32 33 34 35 35 35 34 33 35 37 39 41 41 41 42
58 58 58 58 57 56 56 57 58 59 59 61 60 60 44 30 40 46 48 45 44 41 40 37 35 35 34 34 33 33 34 34 35 35 35 34 34 33 36 39 39 40 40 41 42
58 58 59 58 57 57 56 56 57 58 59 60 60 55 45 31 37 46 43 39 40 41 39 40 39 36 37 35 37 36 33 28 31 31 35 34 33 34 38 39 38 39 41 41 42
58 58 58 58 58 57 56 56 57 59 59 60 60 52 32 39 40 40 44 38 40 42 41 41 41 38 38 38 28 27 25 22 25 31 34 32 30 36 40 38 38 40 42 43 44
59 59 58 58 58 58 57 56 57 57 59 60 51 43 28 46 37 37 39 37 39 40 42 39 39 38 34 24 19 23 21 23 24 28 33 32 30 36 40 39 39 41 43 44 45
60 60 59 59 59 58 57 56 56 56 56 56 52 40 36 33 36 37 37 38 37 38 37 38 35 31 28 20 13 17 24 22 22 25 32 31 32 35 39 39 39 41 43 45 45
61 60 59 59 59 58 54 43 34 34 45 35 31 33 29 35 36 35 37 37 36 34 31 34 32 28 26 24 20 22 23 22 24 28 34 34 33 33 38 39 39 41 44 45 45
61 61 60 59 58 56 51 40 38 39 36 35 39 40 38 34 32 33 36 33 33 31 31 26 27 31 28 25 25 23 23 23 26 31 33 33 33 35 38 38 40 43 44 44 45
59 60 60 59 57 44 37 40 43 43 34 29 38 38 35 31 28 27 34 31 28 27 25 22 22 29 25 22 21 21 22 22 24 28 32 30 29 33 35 37 39 43 44 44 47
59 59 60 57 41 42 40 43 47 41 21 17 35 37 33 33 29 31 34 30 26 26 24 23 25 22 22 20 21 19 24 26 27 26 26 29 27 27 34 35 38 42 42 46 47
57 58 58 55 47 40 39 42 46 30 12 23 32 35 33 29 29 31 31 25 23 25 23 23 21 21 21 19 22 17 29 30 29 27 29 29 26 27 33 33 39 42 44 46 48
56 56 57 52 50 48 44 45 41 23 14 25 30 31 29 31 31 31 28 28 27 25 24 23 24 20 17 23 23 30 31 30 32 32 28 29 27 27 30 34 40 43 45 47 48
54 56 55 53 36 45 42 43 31 22 21 24 28 30 29 27 29 28 26 24 23 21 21 23 22 23 23 21 28 28 29 22 16 22 23 29 28 28 32 40 42 44 46 48 49
53 53 53 54 49 42 43 40 26 22 20 31 30 29 27 26 26 27 24 23 24 20 21 20 17 21 24 13 20 26 24 20 2 10 17 29 26 25 38 42 42 45 47 48 48
52 50 53 55 56 48 38 37 20 20 22 29 26 25 24 24 25 22 22 23 24 22 18 19 19 21 19 28 25 28 26 28 25 25 22 26 29 27 41 40 41 44 45 46 48
46 45 45 51 55 49 35 27 31 31 33 29 24 26 24 23 22 22 22 24 25 24 22 21 16 18 22 27 30 25 31 27 26 15 13 17 22 21 25 28 39 42 44 46 48
43 40 47 52 50 42 33 24 22 32 35 26 26 26 24 23 22 21 21 23 27 25 22 20 16 16 19 19 24 29 29 25 27 25 18 15 14 25 25 34 38 41 43 46 47
41 33 47 49 41 39 34 33 29 26 24 32 28 27 23 24 22 22 21 23 28 25 20 18 17 15 14 19 26 27 26 25 18 17 23 19 19 32 31 38 41 42 43 47 46
39 37 46 47 34 34 35 36 32 20 21 26 29 28 26 24 21 23 24 31 30 25 22 22 17 16 17 19 22 20 20 21 20 22 21 20 16 35 36 39 41 41 43 46 45
40 33 37 43 40 37 35 35 35 27 20 21 26 27 25 23 25 24 24 29 29 27 35 30 20 17 16 16 21 17 19 20 17 14 13 22 22 27 36 39 40 40 42 45 45
40 34 33 32 34 36 37 36 33 33 26 18 22 20 24 23 25 25 26 26 31 41 28 23 19 21 20 23 21 17 18 18 14 13 12 14 22 22 31 37 39 41 41 44 45
37 36 35 32 32 36 35 32 35 37 30 18 20 23 22 24 24 26 25 23 24 33 24 25 20 23 18 23 24 23 24 19 16 14 15 14 16 20 25 38 39 41 41 42 44
42 42 37 31 30 32 35 35 33 33 35 29 22 21 21 21 26 27 26 25 25 27 24 23 23 18 15 20 20 17 20 23 21 17 14 12 15 22 33 37 38 40 41 42 42

GFSSW_sfc_dewp_135.txt.gz
Dewpoint
58 58 58 59 59 59 58 59 59 59 60 61 61 62 62 62 60 53 35 41 47 61 60 48 43 37 39 43 45 44 38 34 34 31 29 28 31 32 31 30 33 34 44 50 61
58 58 58 58 58 58 58 58 59 60 60 60 61 61 61 62 50 38 50 62 64 63 44 41 37 36 36 38 41 39 33 32 36 33 29 29 32 32 32 33 33 33 35 39 58
58 59 59 58 58 57 57 58 58 59 60 60 61 61 61 60 39 34 62 65 64 53 46 45 42 37 35 37 35 37 31 32 34 36 31 31 32 33 33 34 35 36 36 39 42
58 58 59 59 58 57 57 57 58 59 59 60 61 61 62 55 27 37 65 66 63 51 43 39 38 37 37 32 32 30 32 32 32 33 35 33 33 33 35 36 38 40 39 41 42
57 58 58 59 58 58 57 57 57 58 59 59 61 61 56 39 35 42 67 65 50 43 39 38 35 36 35 34 34 31 32 33 33 35 36 34 34 34 36 37 40 41 42 42 42
58 58 58 58 58 58 58 57 56 57 58 59 60 60 48 33 38 53 51 45 45 41 41 38 36 36 34 34 34 33 33 35 36 34 35 34 34 35 36 39 39 41 42 42 43
59 59 58 58 58 58 58 58 57 57 59 59 59 57 48 34 39 50 43 40 42 41 39 41 39 37 38 35 36 36 33 29 29 30 34 35 33 34 38 39 39 41 43 45 45
60 59 59 59 58 58 58 58 57 58 59 59 60 54 36 38 41 43 41 39 41 43 42 42 42 39 37 37 27 27 27 26 25 29 34 33 32 35 40 38 39 41 43 45 45
61 60 60 59 59 58 58 57 57 57 59 59 50 42 33 48 38 38 41 37 40 41 43 39 41 38 33 26 21 24 20 23 25 27 31 33 32 34 40 39 39 41 43 44 45
61 61 60 60 59 59 58 56 55 55 56 56 53 40 37 33 37 37 40 39 38 40 39 39 36 33 30 24 20 15 21 22 24 25 31 32 33 34 39 39 39 41 43 44 44
59 60 61 60 60 59 54 43 35 35 46 35 34 31 29 36 36 36 38 37 37 36 33 34 33 31 30 28 20 22 22 22 24 27 34 34 34 35 37 39 40 43 43 43 43
58 59 59 60 59 58 49 42 41 41 38 38 40 39 39 35 32 34 37 34 35 33 31 29 30 31 30 27 25 24 22 23 26 28 33 32 33 35 38 39 42 43 43 42 45
57 58 58 58 58 42 37 41 43 45 36 33 36 37 36 33 30 32 35 34 33 31 30 27 26 30 28 24 23 23 23 22 22 28 31 31 31 31 36 38 41 43 43 46 46
56 56 57 58 42 44 39 42 42 44 26 22 30 36 33 35 32 30 35 32 29 29 27 26 27 24 27 22 23 21 24 24 26 26 25 30 26 30 34 35 40 42 44 47 48
54 55 57 57 52 44 33 43 45 33 18 23 34 35 34 28 30 33 35 29 28 25 26 25 23 24 24 22 23 22 30 29 29 27 30 30 28 28 33 33 40 42 45 47 49
53 54 54 53 48 48 46 43 41 25 17 23 32 31 30 32 30 31 28 30 29 27 27 26 26 24 23 24 25 32 31 29 32 33 29 29 28 26 29 35 41 42 46 48 49
52 53 51 49 48 45 45 43 31 25 23 22 29 31 29 28 29 30 26 25 25 24 24 26 24 25 24 25 29 29 28 28 20 29 25 30 30 29 32 42 43 43 46 48 49
52 52 49 49 53 47 40 40 25 22 22 32 30 31 27 28 28 28 26 25 26 21 23 21 19 23 25 17 24 27 27 28 18 17 24 29 30 28 37 42 43 45 47 47 49
51 47 48 52 54 53 43 35 16 22 24 29 28 28 28 26 27 25 25 25 25 23 21 21 22 22 23 28 27 29 28 27 28 27 28 28 28 28 42 42 42 45 45 46 48
46 44 43 43 55 49 39 33 30 30 31 30 24 28 27 24 24 25 23 25 25 25 23 22 20 20 24 30 33 28 31 29 28 23 16 15 20 21 28 33 42 44 44 46 48
43 38 41 51 52 44 33 35 32 32 29 31 27 26 28 25 24 23 23 26 28 27 23 22 21 20 22 21 28 32 31 25 28 24 16 11 11 24 26 33 41 43 45 46 47
40 33 41 50 40 39 35 35 37 33 26 26 32 29 27 26 23 24 23 24 29 25 22 21 19 16 18 20 25 31 29 26 19 20 24 19 18 28 27 36 42 43 45 47 47
38 36 41 44 27 32 35 34 35 35 27 24 28 31 28 26 24 25 25 31 30 26 22 22 19 17 18 21 24 24 25 24 21 26 23 20 13 31 36 39 43 43 45 46 46
38 31 35 41 36 29 26 33 33 37 36 34 25 23 27 25 26 25 24 31 31 28 36 31 21 19 17 19 23 21 21 21 20 18 15 21 17 23 35 38 41 42 45 46 46
39 33 33 26 33 33 32 28 31 34 36 34 35 32 23 25 26 25 27 28 33 36 31 25 21 19 19 22 20 18 21 21 18 16 13 15 22 19 27 36 39 43 45 46 45
35 35 37 32 30 28 29 28 32 27 33 32 31 32 27 22 27 26 26 26 26 35 25 26 21 22 21 23 24 23 20 21 20 16 15 16 18 23 23 36 39 41 43 45 45
41 40 37 31 32 29 28 27 27 35 34 36 35 31 28 29 27 24 22 24 26 30 24 24 25 20 17 21 22 19 23 21 20 19 18 15 19 22 30 34 37 40 43 44 46

GFSSW_sfc_dewp_138.txt.gz
Dewpoint
59 58 58 59 59 59 58 59 59 60 61 61 61 61 62 62 61 51 36 41 47 62 60 46 38 39 44 44 46 46 32 25 26 29 26 29 29 32 32 31 32 32 36 40 48
58 58 59 59 59 58 58 58 59 59 60 61 61 61 61 62 46 34 50 63 64 64 41 38 37 37 36 39 43 38 29 24 30 31 28 29 30 31 32 31 32 33 35 37 47
58 58 58 59 59 58 58 58 58 58 59 60 61 61 61 58 35 29 62 65 64 57 42 39 37 35 34 38 36 36 29 30 31 32 32 30 32 33 32 34 35 35 35 38 41
58 58 58 58 59 59 58 58 58 57 58 59 60 61 61 50 22 36 66 67 63 47 40 39 38 37 35 32 33 30 31 31 32 32 35 33 33 32 34 36 38 40 40 40 40
58 58 58 58 58 58 59 58 58 57 57 59 60 61 53 34 29 43 67 65 51 43 37 36 35 36 33 33 34 31 31 32 33 33 34 35 34 33 35 38 39 40 41 41 41
59 59 59 59 59 58 58 58 58 57 57 59 60 60 41 29 36 45 48 49 41 39 37 36 32 35 32 33 33 33 33 33 34 34 34 34 34 35 36 38 39 40 40 41 42
61 61 60 60 59 59 59 59 58 58 58 59 60 54 40 28 38 48 45 40 41 38 36 37 37 34 36 34 36 35 32 31 32 30 31 36 34 34 35 38 37 38 40 42 43
62 62 61 61 60 60 60 60 59 59 58 59 60 50 28 37 42 45 40 38 40 40 40 40 39 36 36 37 31 29 29 23 27 27 32 34 26 33 37 37 37 38 38 42 42
59 60 61 61 61 61 60 60 57 57 59 59 50 41 26 46 38 40 37 36 39 40 41 39 40 38 37 33 25 25 14 20 21 27 27 32 27 33 38 38 37 38 38 40 41
58 60 60 61 61 61 60 56 56 55 55 53 51 38 33 30 36 37 38 38 37 39 39 38 37 34 33 29 19 16 16 17 19 23 27 27 27 29 36 37 37 38 39 40 41
58 58 58 59 59 60 51 43 37 36 44 33 32 29 27 34 37 36 36 37 37 36 30 36 31 27 26 29 27 23 21 20 19 23 26 27 30 31 34 38 39 40 40 40 41
55 56 56 57 57 58 41 40 42 43 36 38 37 35 38 34 32 34 36 32 34 29 32 31 28 27 29 29 27 24 21 21 21 25 30 27 28 29 35 38 40 40 40 42 45
52 54 56 56 57 46 40 40 41 45 38 33 35 32 32 34 29 32 35 32 31 30 30 26 25 27 29 27 26 24 21 20 18 23 28 30 29 32 37 39 39 41 43 45 48
53 54 53 54 51 53 37 41 44 46 30 22 27 32 33 32 31 32 35 33 31 28 28 28 27 26 27 25 24 21 22 22 22 25 19 30 18 31 33 35 37 40 42 46 49
53 53 53 54 53 52 43 45 46 42 8 22 30 35 32 26 28 31 36 32 28 28 29 26 25 26 27 25 24 21 27 26 28 27 28 28 27 25 32 32 33 40 44 48 50
53 53 53 43 43 50 48 51 45 27 12 20 31 32 28 28 28 30 32 30 30 28 27 25 23 24 22 23 23 31 30 31 33 30 26 26 27 20 27 30 36 40 44 48 49
53 52 48 43 35 46 49 45 28 20 20 17 28 31 27 25 26 28 29 27 25 24 24 25 24 22 23 24 28 28 24 27 25 31 23 30 30 25 30 38 40 41 45 47 49
53 51 45 42 41 47 48 39 27 22 19 29 29 30 27 27 25 27 27 26 26 24 24 23 21 24 22 21 21 23 21 29 32 22 29 28 29 28 32 39 44 45 46 47 49
50 45 44 40 45 51 46 33 27 25 20 18 23 28 27 27 27 27 26 24 25 25 21 20 21 22 23 22 22 26 23 25 27 30 27 30 27 33 40 39 42 45 46 47 48
47 43 40 40 44 49 39 35 32 32 26 26 20 21 24 26 25 26 26 26 27 26 23 21 19 20 28 27 31 27 27 24 27 31 18 13 15 14 35 36 39 44 45 47 49
45 37 37 47 48 43 32 27 29 36 35 29 22 22 21 25 26 26 25 26 29 28 26 23 20 19 26 23 22 27 23 25 27 24 14 9 9 21 27 31 35 43 45 46 48
42 33 42 48 39 38 33 29 31 28 34 32 30 27 27 27 26 26 26 25 29 28 25 25 21 18 18 19 21 23 20 22 14 21 22 19 14 24 25 29 38 43 45 46 48
38 35 41 40 31 34 30 30 30 30 29 31 30 31 27 27 26 27 27 32 33 28 26 24 20 17 18 20 24 23 25 23 20 24 20 16 15 28 30 34 41 43 45 46 48
39 30 36 40 30 26 21 20 20 27 33 31 31 32 30 27 27 26 26 30 32 29 42 33 23 17 15 17 20 20 21 23 19 16 14 17 15 28 31 35 41 43 45 46 47
40 32 28 31 31 29 28 25 22 21 23 33 32 27 34 31 29 29 27 27 30 30 32 25 21 20 19 19 21 20 21 23 20 17 14 14 18 16 30 34 39 44 45 45 46
37 32 34 27 26 26 27 25 25 23 23 25 28 30 31 32 30 29 26 26 27 33 27 26 21 21 19 21 20 19 20 22 21 19 18 16 16 19 20 32 36 42 45 45 46
42 39 35 28 27 28 26 24 25 24 23 23 24 25 29 32 31 32 31 32 31 29 26 24 24 22 17 21 22 19 22 21 22 22 21 19 21 19 24 31 35 40 45 46 46

GFSSW_sfc_dewp_141.txt.gz
Dewpoint
58 59 59 59 59 59 59 59 59 59 60 60 61 61 62 63 61 52 39 42 47 64 59 43 41 41 42 42 42 41 33 25 25 27 23 28 26 29 30 28 29 30 31 36 39
59 59 59 59 59 59 59 59 59 59 59 59 60 61 61 62 48 34 53 64 66 66 44 38 36 38 38 38 40 37 33 26 28 27 25 27 27 26 29 28 29 31 32 35 39
59 59 59 59 59 59 59 59 59 59 58 59 60 61 61 59 43 26 64 65 66 60 40 37 34 35 34 36 35 35 30 29 27 28 28 27 27 29 30 31 31 32 34 35 38
59 59 59 59 59 59 59 59 59 59 58 58 59 61 62 50 26 36 66 67 66 44 38 37 36 35 35 33 32 31 29 28 31 31 33 31 32 31 32 34 37 38 38 38 37
60 60 60 60 60 60 59 59 59 58 58 58 59 61 53 37 29 49 68 64 45 41 35 35 34 35 34 31 31 30 28 30 31 33 33 34 34 33 32 33 37 38 40 39 39
61 61 61 61 61 61 61 60 60 59 58 58 59 60 44 30 32 43 44 46 41 39 34 33 32 32 31 30 30 32 32 32 32 33 33 33 31 32 33 34 37 38 39 39 39
61 61 62 61 61 61 61 61 61 60 59 58 60 53 36 29 34 39 41 42 38 36 33 31 31 31 32 31 33 33 31 28 27 29 31 33 31 30 33 34 36 36 37 39 41
59 60 59 60 61 61 61 61 61 59 59 59 60 46 31 36 35 42 41 36 38 38 36 35 35 34 35 35 32 29 26 23 23 27 28 32 25 25 32 34 35 35 35 37 40
59 58 57 58 59 59 61 61 59 58 59 59 51 41 27 42 35 41 38 34 36 37 39 37 38 35 35 32 27 26 17 19 20 25 24 29 25 24 34 34 34 34 34 35 37
55 56 56 57 58 58 59 59 55 56 56 51 45 36 29 26 30 35 37 34 36 37 37 37 36 32 31 27 23 20 19 16 16 20 24 23 23 24 25 34 35 33 34 36 38
53 54 55 55 56 57 54 35 40 41 41 33 31 28 23 30 35 34 36 35 35 35 32 34 31 28 25 28 25 24 23 21 21 18 21 22 22 26 28 32 35 37 37 38 38
52 52 54 54 53 56 49 35 40 42 36 32 32 32 31 31 29 30 34 33 33 30 29 30 31 27 25 26 27 27 22 22 20 19 21 22 21 23 26 30 35 38 38 39 43
52 52 53 53 53 52 41 37 41 45 38 28 27 28 30 30 28 29 32 32 30 29 27 27 25 24 25 27 24 23 22 21 18 19 19 22 26 26 31 35 39 38 40 42 47
52 53 52 53 51 51 41 44 43 47 31 20 29 29 28 31 29 27 34 31 28 28 27 27 28 25 25 23 23 22 22 22 21 19 16 28 16 25 32 35 36 37 39 44 49
53 53 53 52 40 46 49 49 47 46 16 20 26 33 29 29 25 26 33 32 28 28 27 26 27 27 27 25 25 24 24 22 23 22 21 22 23 21 30 31 32 35 42 46 48
53 53 52 40 35 38 42 48 45 31 17 20 29 29 28 30 25 32 31 33 31 29 27 26 25 26 25 24 24 27 26 27 27 25 20 21 25 16 27 26 31 37 42 46 48
52 51 48 40 31 36 41 44 29 21 17 16 23 29 27 26 25 28 30 30 27 26 25 26 25 24 24 24 26 28 24 27 25 30 23 28 26 21 30 33 33 38 43 47 48
52 51 45 38 36 35 40 35 25 12 17 23 27 27 26 24 25 25 26 27 27 25 22 23 21 24 24 23 23 26 24 29 30 24 29 27 26 24 29 36 40 42 45 47 49
50 41 39 39 37 40 38 33 12 14 16 20 23 20 22 26 24 23 24 25 25 25 23 20 22 24 23 23 22 22 22 22 24 23 25 26 26 32 34 37 40 43 45 47 48
41 37 34 34 39 40 33 29 20 23 27 31 23 20 17 21 26 24 24 24 25 26 25 21 20 23 23 23 23 25 24 21 23 30 21 16 18 18 34 34 37 41 43 46 48
40 35 29 38 41 37 32 25 17 19 26 32 30 23 19 17 22 24 23 24 26 27 27 25 21 21 26 24 21 24 24 24 24 20 18 13 13 18 28 32 32 38 43 46 48
41 36 31 40 34 28 31 22 28 20 20 25 35 32 30 26 25 22 24 24 28 29 27 26 21 18 22 21 23 22 21 20 18 19 20 15 17 20 23 26 30 38 43 45 47
40 38 36 40 31 33 23 22 25 26 25 24 23 29 31 32 28 27 27 31 33 33 28 28 23 20 18 20 21 21 22 20 20 19 19 18 17 22 22 23 32 40 43 44 47
38 34 36 38 28 20 19 17 14 17 18 25 29 27 24 30 33 32 28 31 33 32 43 39 26 22 18 18 20 19 21 22 21 19 17 16 20 24 27 27 34 41 44 44 47
40 34 36 34 30 23 18 14 12 13 15 17 18 22 24 23 23 30 32 29 32 33 31 30 25 22 20 19 19 20 19 21 21 20 15 15 16 20 26 30 33 40 43 44 46
35 34 36 31 28 25 26 22 18 16 17 18 20 22 23 31 31 27 31 34 33 31 29 29 25 23 20 20 19 19 20 21 21 20 19 17 17 18 24 29 32 38 42 44 45
41 39 38 32 26 25 25 23 21 19 17 16 17 16 17 21 25 29 36 39 36 34 31 28 27 24 21 20 19 18 19 20 21 22 20 18 20 21 20 28 31 36 41 43 45

GFSSW_sfc_dewp_144.txt.gz
Dewpoint
59 59 59 59 60 60 60 60 60 60 59 59 60 61 62 62 61 48 41 49 50 64 61 43 43 45 47 49 48 50 41 34 31 36 35 30 32 30 35 30 30 34 32 36 42
59 59 59 59 59 59 60 59 60 60 60 60 59 60 61 62 50 39 53 67 67 66 45 40 38 40 44 45 44 42 39 36 31 30 32 32 32 29 31 30 28 29 31 36 39
60 60 60 60 60 60 61 60 59 59 59 60 60 60 61 60 45 34 66 67 67 63 41 38 37 39 41 41 39 40 37 34 31 33 32 30 29 30 29 33 33 34 34 36 40
59 61 61 61 61 61 62 61 61 60 60 59 59 60 61 51 34 44 67 67 67 49 40 36 36 39 40 37 35 34 32 32 33 36 34 32 31 31 33 35 38 40 38 39 37
62 62 62 62 61 61 61 61 61 61 61 60 59 60 55 40 33 54 67 65 50 45 37 35 34 38 36 35 33 32 31 29 32 34 35 35 35 34 34 34 36 38 42 40 38
59 60 60 60 61 61 61 61 61 62 61 59 59 60 46 31 38 48 45 47 40 39 36 35 33 33 32 32 32 34 33 33 33 32 34 33 34 34 34 34 33 38 39 39 39
59 59 58 58 59 59 59 61 61 61 60 59 59 55 39 29 32 44 41 42 40 38 35 33 32 32 35 33 35 31 31 32 31 31 31 33 32 31 32 32 32 36 37 38 40
55 56 56 56 57 58 58 59 60 61 59 59 60 49 36 34 36 34 39 39 38 36 38 39 39 35 33 35 34 30 30 29 27 26 31 32 28 30 30 31 34 35 34 38 39
53 53 52 53 55 55 56 58 60 60 59 59 52 45 33 45 31 33 39 37 35 36 39 36 40 35 35 33 30 30 26 24 28 29 28 31 30 29 34 35 34 33 33 34 35
53 54 54 54 54 54 54 57 57 55 56 52 46 40 35 27 31 30 41 37 35 36 37 37 37 34 33 30 26 25 24 23 22 24 25 26 25 25 24 32 33 33 33 33 35
53 54 54 54 54 53 52 43 38 43 44 38 37 33 26 29 32 30 38 35 34 35 33 36 32 31 30 30 27 26 24 25 25 24 23 23 23 23 25 29 34 35 35 37 39
52 53 54 53 52 51 50 38 37 40 38 37 33 33 33 33 29 31 35 32 34 32 32 31 31 32 30 28 27 26 25 26 25 25 24 23 22 22 22 28 31 34 37 39 44
52 53 54 53 51 51 48 41 44 44 40 35 33 27 26 31 29 28 32 33 32 31 30 29 28 30 30 28 26 27 25 23 22 25 23 21 20 21 26 29 39 38 39 44 48
53 54 53 53 47 36 45 49 50 47 38 25 27 26 26 29 29 30 30 33 30 28 29 29 28 26 28 25 24 26 26 25 24 25 19 24 20 21 31 34 38 38 38 46 48
54 54 53 52 41 33 37 41 45 45 23 24 26 32 28 27 27 28 30 31 30 27 28 28 28 29 29 26 26 24 31 28 27 24 23 22 21 22 28 34 35 35 41 46 49
53 53 52 40 36 34 34 37 44 37 19 20 28 27 27 27 26 31 28 32 32 29 28 28 30 30 28 27 28 29 28 29 29 28 23 21 21 23 29 31 33 36 42 47 48
52 52 48 42 34 35 33 39 31 23 14 17 24 27 26 25 25 27 26 30 29 26 26 28 27 28 27 27 29 30 27 31 26 28 25 30 26 26 31 33 36 38 44 47 48
51 51 45 40 39 37 34 39 27 12 13 18 23 24 25 27 26 27 27 26 30 29 28 26 25 27 25 24 26 26 27 33 26 28 32 30 27 25 33 36 39 41 46 48 48
51 43 39 36 39 37 31 29 15 12 11 22 26 16 22 25 25 25 25 26 28 29 26 23 25 27 26 24 24 26 26 27 26 25 25 31 29 34 36 38 40 43 46 47 48
46 41 39 37 35 35 29 22 14 18 16 19 24 25 20 21 21 25 25 25 26 29 29 25 22 26 25 26 25 24 27 24 26 24 23 22 18 24 32 36 40 42 45 47 49
46 40 36 35 32 34 30 23 16 17 17 14 22 27 27 26 23 21 25 26 28 28 28 26 25 26 26 24 22 24 25 24 25 25 20 20 19 22 33 35 37 40 44 47 48
44 36 37 33 37 32 31 24 25 18 19 18 17 17 19 27 29 29 28 26 31 32 26 27 25 24 23 25 23 23 23 24 25 23 22 21 19 17 32 33 36 37 42 47 48
38 39 41 38 32 33 28 25 24 22 20 19 20 21 21 28 27 32 33 35 34 32 32 30 25 24 23 24 23 23 23 22 23 22 20 22 20 21 26 27 32 39 43 45 48
39 33 37 40 40 32 28 24 20 21 20 20 27 27 25 24 23 29 33 36 36 35 42 39 28 25 22 22 23 21 22 22 21 20 18 19 21 22 23 25 34 42 43 45 48
39 34 33 32 34 36 30 28 19 17 17 13 13 15 16 19 22 21 24 25 31 38 35 34 27 27 27 26 23 21 21 21 21 20 19 20 20 21 24 26 35 42 43 44 47
35 34 36 34 32 32 34 28 25 16 12 11 14 13 14 18 18 23 27 29 36 37 34 35 28 28 26 26 25 22 22 21 21 22 21 20 19 24 26 28 34 41 43 44 46
41 41 37 31 29 31 28 29 27 20 18 14 14 14 13 14 15 21 26 29 36 36 37 35 30 28 26 25 23 21 21 21 22 22 23 21 21 22 26 29 31 38 42 43 45